Wetterdaten: Freitag, 02.11.2018
Datum Zeit Temp. Aussen Temp. o. S. +5cm Feuchte Auss Luftdruck Regen Sonnenschein Regendauer Solar Windben Empfang
02.11.2018 00:00 9,1 C 8,3 C 7,8 C 98 % 1009,6 hPa 0,0 l/m 0 min 0 min 0 W/m 3,2 km/h (1 Bft) 100,00 %
02.11.2018 00:02 9,1 C 8,3 C 7,8 C 98 % 1009,7 hPa 0,0 l/m 0 min 0 min 0 W/m 3,2 km/h (1 Bft) 100,00 %
02.11.2018 00:04 9,1 C 8,3 C 7,8 C 98 % 1009,7 hPa 0,0 l/m 0 min 0 min 0 W/m 6,4 km/h (2 Bft) 100,00 %
02.11.2018 00:08 9,1 C 8,3 C 7,8 C 98 % 1009,7 hPa 0,0 l/m 0 min 0 min 0 W/m 6,4 km/h (2 Bft) 98,92 %
02.11.2018 00:10 9,1 C 8,3 C 7,8 C 98 % 1009,6 hPa 0,0 l/m 0 min 0 min 0 W/m 6,4 km/h (2 Bft) 100,00 %
02.11.2018 00:12 9,1 C 8,3 C 7,8 C 98 % 1009,6 hPa 0,0 l/m 0 min 0 min 0 W/m 6,4 km/h (2 Bft) 100,00 %
02.11.2018 00:14 9,1 C 8,3 C 7,8 C 98 % 1009,7 hPa 0,0 l/m 0 min 0 min 0 W/m 6,4 km/h (2 Bft) 100,00 %
02.11.2018 00:16 9,1 C 8,3 C 7,8 C 98 % 1009,7 hPa 0,0 l/m 0 min 0 min 0 W/m 6,4 km/h (2 Bft) 100,00 %
02.11.2018 00:18 9,2 C 8,3 C 7,8 C 98 % 1009,7 hPa 0,0 l/m 0 min 0 min 0 W/m 6,4 km/h (2 Bft) 100,00 %
02.11.2018 00:20 9,2 C 8,3 C 7,8 C 98 % 1009,8 hPa 0,0 l/m 0 min 0 min 0 W/m 6,4 km/h (2 Bft) 97,87 %
02.11.2018 00:22 9,2 C 8,3 C 7,8 C 98 % 1009,9 hPa 0,0 l/m 0 min 0 min 0 W/m 6,4 km/h (2 Bft) 100,00 %
02.11.2018 00:24 9,2 C 8,3 C 7,8 C 98 % 1009,9 hPa 0,0 l/m 0 min 0 min 0 W/m 9,7 km/h (2 Bft) 95,74 %
02.11.2018 00:26 9,2 C 8,3 C 7,8 C 98 % 1009,8 hPa 0,0 l/m 0 min 0 min 0 W/m 19,3 km/h (3 Bft) 95,74 %
02.11.2018 00:28 9,2 C 8,9 C 7,8 C 98 % 1009,9 hPa 0,0 l/m 0 min 0 min 0 W/m 6,4 km/h (2 Bft) 95,74 %
02.11.2018 00:30 9,2 C 8,9 C 7,8 C 98 % 1009,9 hPa 0,0 l/m 0 min 0 min 0 W/m 6,4 km/h (2 Bft) 95,74 %
02.11.2018 00:32 9,2 C 8,9 C 7,8 C 98 % 1009,9 hPa 0,0 l/m 0 min 0 min 0 W/m 6,4 km/h (2 Bft) 95,65 %
02.11.2018 00:34 9,2 C 8,9 C 7,8 C 97 % 1009,9 hPa 0,0 l/m 0 min 0 min 0 W/m 9,7 km/h (2 Bft) 97,87 %
02.11.2018 00:38 9,3 C 8,9 C 7,8 C 97 % 1009,9 hPa 0,0 l/m 0 min 0 min 0 W/m 3,2 km/h (1 Bft) 97,87 %
02.11.2018 00:40 9,3 C 8,9 C 7,8 C 97 % 1009,9 hPa 0,0 l/m 0 min 0 min 0 W/m 6,4 km/h (2 Bft) 97,87 %
02.11.2018 00:42 9,3 C 8,3 C 7,8 C 97 % 1009,9 hPa 0,0 l/m 0 min 0 min 0 W/m 3,2 km/h (1 Bft) 97,83 %
02.11.2018 00:44 9,3 C 8,9 C 7,8 C 97 % 1009,9 hPa 0,0 l/m 0 min 0 min 0 W/m 12,9 km/h (3 Bft) 95,74 %
02.11.2018 00:46 9,3 C 8,9 C 7,8 C 97 % 1010,0 hPa 0,0 l/m 0 min 0 min 0 W/m 3,2 km/h (1 Bft) 95,74 %
02.11.2018 00:48 9,3 C 8,9 C 7,8 C 97 % 1010,0 hPa 0,0 l/m 0 min 0 min 0 W/m 6,4 km/h (2 Bft) 95,74 %
02.11.2018 00:50 9,3 C 8,9 C 7,8 C 97 % 1010,0 hPa 0,0 l/m 0 min 0 min 0 W/m 9,7 km/h (2 Bft) 95,74 %
02.11.2018 00:52 9,3 C 8,9 C 7,8 C 97 % 1010,0 hPa 0,0 l/m 0 min 0 min 0 W/m 3,2 km/h (1 Bft) 95,74 %
02.11.2018 00:54 9,3 C 8,9 C 7,8 C 97 % 1010,0 hPa 0,0 l/m 0 min 0 min 0 W/m 9,7 km/h (2 Bft) 95,65 %
02.11.2018 00:56 9,3 C 8,9 C 7,8 C 97 % 1010,1 hPa 0,0 l/m 0 min 0 min 0 W/m 6,4 km/h (2 Bft) 93,62 %
02.11.2018 00:58 9,3 C 8,9 C 7,8 C 97 % 1010,2 hPa 0,0 l/m 0 min 0 min 0 W/m 3,2 km/h (1 Bft) 95,74 %
02.11.2018 01:00 9,3 C 8,9 C 7,8 C 97 % 1010,3 hPa 0,0 l/m 0 min 0 min 0 W/m 3,2 km/h (1 Bft) 95,74 %
02.11.2018 01:02 9,3 C 8,9 C 7,8 C 97 % 1010,3 hPa 0,0 l/m 0 min 0 min 0 W/m 9,7 km/h (2 Bft) 95,74 %
02.11.2018 01:04 9,3 C 8,9 C 7,8 C 97 % 1010,3 hPa 0,0 l/m 0 min 0 min 0 W/m 6,4 km/h (2 Bft) 95,74 %
02.11.2018 01:08 9,3 C 8,9 C 7,8 C 97 % 1010,3 hPa 0,0 l/m 0 min 0 min 0 W/m 3,2 km/h (1 Bft) 95,70 %
02.11.2018 01:10 9,3 C 8,9 C 7,8 C 97 % 1010,3 hPa 0,0 l/m 0 min 0 min 0 W/m 9,7 km/h (2 Bft) 95,74 %
02.11.2018 01:12 9,3 C 8,9 C 7,8 C 97 % 1010,3 hPa 0,0 l/m 0 min 0 min 0 W/m 3,2 km/h (1 Bft) 95,74 %
02.11.2018 01:14 9,3 C 8,9 C 7,8 C 97 % 1010,3 hPa 0,0 l/m 0 min 0 min 0 W/m 6,4 km/h (2 Bft) 91,49 %
02.11.2018 01:16 9,3 C 8,9 C 7,8 C 97 % 1010,3 hPa 0,0 l/m 0 min 0 min 0 W/m 6,4 km/h (2 Bft) 95,74 %
02.11.2018 01:18 9,3 C 8,9 C 7,8 C 97 % 1010,4 hPa 0,0 l/m 0 min 0 min 0 W/m 9,7 km/h (2 Bft) 95,65 %
02.11.2018 01:20 9,3 C 8,9 C 7,8 C 97 % 1010,4 hPa 0,0 l/m 0 min 0 min 0 W/m 19,3 km/h (3 Bft) 95,74 %
02.11.2018 01:22 9,3 C 8,9 C 7,8 C 97 % 1010,4 hPa 0,0 l/m 0 min 0 min 0 W/m 6,4 km/h (2 Bft) 95,74 %
02.11.2018 01:24 9,3 C 8,9 C 7,8 C 97 % 1010,4 hPa 0,0 l/m 0 min 0 min 0 W/m 6,4 km/h (2 Bft) 93,62 %
02.11.2018 01:26 9,3 C 8,9 C 7,8 C 97 % 1010,4 hPa 0,0 l/m 0 min 0 min 0 W/m 6,4 km/h (2 Bft) 100,00 %
02.11.2018 01:28 9,3 C 9,4 C 7,8 C 97 % 1010,5 hPa 0,0 l/m 0 min 0 min 0 W/m 6,4 km/h (2 Bft) 97,87 %
02.11.2018 01:30 9,3 C 9,4 C 7,8 C 97 % 1010,5 hPa 0,0 l/m 0 min 0 min 0 W/m 12,9 km/h (3 Bft) 100,00 %
02.11.2018 01:32 9,3 C 9,4 C 8,3 C 97 % 1010,4 hPa 0,0 l/m 0 min 0 min 0 W/m 6,4 km/h (2 Bft) 97,87 %
02.11.2018 01:34 9,3 C 9,4 C 8,3 C 97 % 1010,5 hPa 0,0 l/m 0 min 0 min 0 W/m 6,4 km/h (2 Bft) 95,74 %
02.11.2018 01:38 9,3 C 8,9 C 8,3 C 97 % 1010,5 hPa 0,0 l/m 0 min 0 min 0 W/m 9,7 km/h (2 Bft) 95,74 %
02.11.2018 01:40 9,3 C 8,9 C 8,3 C 97 % 1010,6 hPa 0,0 l/m 0 min 0 min 0 W/m 9,7 km/h (2 Bft) 95,65 %
02.11.2018 01:42 9,3 C 9,4 C 7,8 C 97 % 1010,5 hPa 0,0 l/m 0 min 0 min 0 W/m 3,2 km/h (1 Bft) 97,87 %
02.11.2018 01:44 9,3 C 9,4 C 7,8 C 97 % 1010,5 hPa 0,0 l/m 0 min 0 min 0 W/m 9,7 km/h (2 Bft) 95,74 %
02.11.2018 01:46 9,3 C 9,4 C 8,3 C 97 % 1010,5 hPa 0,0 l/m 0 min 0 min 0 W/m 6,4 km/h (2 Bft) 97,87 %
02.11.2018 01:48 9,3 C 8,9 C 7,8 C 97 % 1010,6 hPa 0,0 l/m 0 min 0 min 0 W/m 3,2 km/h (1 Bft) 97,87 %
02.11.2018 01:50 9,3 C 8,9 C 7,8 C 97 % 1010,5 hPa 0,0 l/m 0 min 0 min 0 W/m 6,4 km/h (2 Bft) 97,87 %
02.11.2018 01:52 9,3 C 8,9 C 7,8 C 97 % 1010,4 hPa 0,0 l/m 0 min 0 min 0 W/m 6,4 km/h (2 Bft) 95,65 %
02.11.2018 01:54 9,3 C 8,9 C 7,8 C 97 % 1010,5 hPa 0,0 l/m 0 min 0 min 0 W/m 9,7 km/h (2 Bft) 97,87 %
02.11.2018 01:56 9,3 C 8,9 C 7,8 C 97 % 1010,5 hPa 0,0 l/m 0 min 0 min 0 W/m 6,4 km/h (2 Bft) 97,87 %
02.11.2018 01:58 9,3 C 8,9 C 7,8 C 97 % 1010,6 hPa 0,0 l/m 0 min 0 min 0 W/m 9,7 km/h (2 Bft) 95,74 %
02.11.2018 02:00 9,3 C 8,9 C 7,8 C 97 % 1010,7 hPa 0,0 l/m 0 min 0 min 0 W/m 6,4 km/h (2 Bft) 97,87 %
02.11.2018 02:02 9,3 C 8,9 C 7,8 C 97 % 1010,7 hPa 0,0 l/m 0 min 0 min 0 W/m 6,4 km/h (2 Bft) 97,87 %
02.11.2018 02:04 9,3 C 8,9 C 7,8 C 97 % 1010,8 hPa 0,0 l/m 0 min 0 min 0 W/m 6,4 km/h (2 Bft) 97,83 %
02.11.2018 02:08 9,3 C 9,4 C 7,8 C 97 % 1010,9 hPa 0,0 l/m 0 min 0 min 0 W/m 9,7 km/h (2 Bft) 97,87 %
02.11.2018 02:10 9,3 C 9,4 C 8,3 C 97 % 1010,9 hPa 0,0 l/m 0 min 0 min 0 W/m 6,4 km/h (2 Bft) 95,74 %
02.11.2018 02:12 9,3 C 9,4 C 8,3 C 97 % 1011,0 hPa 0,0 l/m 0 min 0 min 0 W/m 9,7 km/h (2 Bft) 97,87 %
02.11.2018 02:14 9,3 C 9,4 C 8,3 C 97 % 1011,0 hPa 0,0 l/m 0 min 0 min 0 W/m 9,7 km/h (2 Bft) 95,74 %
02.11.2018 02:16 9,3 C 9,4 C 8,3 C 97 % 1011,0 hPa 0,0 l/m 0 min 0 min 0 W/m 16,1 km/h (3 Bft) 97,83 %
02.11.2018 02:18 9,4 C 9,4 C 8,3 C 97 % 1010,9 hPa 0,0 l/m 0 min 0 min 0 W/m 9,7 km/h (2 Bft) 97,87 %
02.11.2018 02:20 9,4 C 9,4 C 8,3 C 97 % 1011,0 hPa 0,0 l/m 0 min 0 min 0 W/m 12,9 km/h (3 Bft) 97,87 %
02.11.2018 02:22 9,4 C 9,4 C 8,3 C 97 % 1011,1 hPa 0,0 l/m 0 min 0 min 0 W/m 12,9 km/h (3 Bft) 100,00 %
02.11.2018 02:24 9,4 C 9,4 C 8,3 C 97 % 1011,1 hPa 0,0 l/m 0 min 0 min 0 W/m 9,7 km/h (2 Bft) 97,87 %
02.11.2018 02:26 9,4 C 9,4 C 8,3 C 97 % 1011,2 hPa 0,0 l/m 0 min 0 min 0 W/m 19,3 km/h (3 Bft) 100,00 %
02.11.2018 02:28 9,5 C 9,4 C 8,3 C 97 % 1011,3 hPa 0,0 l/m 0 min 0 min 0 W/m 9,7 km/h (2 Bft) 100,00 %
02.11.2018 02:30 9,5 C 10,0 C 8,3 C 97 % 1011,2 hPa 0,0 l/m 0 min 0 min 0 W/m 12,9 km/h (3 Bft) 100,00 %
02.11.2018 02:32 9,6 C 10,0 C 8,3 C 97 % 1011,3 hPa 0,0 l/m 0 min 0 min 0 W/m 9,7 km/h (2 Bft) 97,87 %
02.11.2018 02:34 9,6 C 10,0 C 8,3 C 96 % 1011,4 hPa 0,0 l/m 0 min 0 min 0 W/m 9,7 km/h (2 Bft) 100,00 %
02.11.2018 02:38 9,6 C 10,0 C 8,3 C 97 % 1011,4 hPa 0,0 l/m 0 min 0 min 0 W/m 12,9 km/h (3 Bft) 100,00 %
02.11.2018 02:40 9,7 C 9,4 C 8,3 C 96 % 1011,4 hPa 0,0 l/m 0 min 0 min 0 W/m 9,7 km/h (2 Bft) 100,00 %
02.11.2018 02:42 9,7 C 9,4 C 8,3 C 96 % 1011,3 hPa 0,0 l/m 0 min 0 min 0 W/m 12,9 km/h (3 Bft) 97,87 %
02.11.2018 02:44 9,7 C 9,4 C 8,3 C 96 % 1011,3 hPa 0,0 l/m 0 min 0 min 0 W/m 9,7 km/h (2 Bft) 100,00 %
02.11.2018 02:46 9,7 C 10,0 C 8,3 C 96 % 1011,5 hPa 0,0 l/m 0 min 0 min 0 W/m 19,3 km/h (3 Bft) 100,00 %
02.11.2018 02:48 9,7 C 10,0 C 8,3 C 96 % 1011,5 hPa 0,0 l/m 0 min 0 min 0 W/m 12,9 km/h (3 Bft) 100,00 %
02.11.2018 02:50 9,8 C 10,0 C 8,3 C 96 % 1011,5 hPa 0,0 l/m 0 min 0 min 0 W/m 16,1 km/h (3 Bft) 100,00 %
02.11.2018 02:52 9,8 C 9,4 C 8,3 C 96 % 1011,5 hPa 0,0 l/m 0 min 0 min 0 W/m 6,4 km/h (2 Bft) 100,00 %
02.11.2018 02:54 9,8 C 10,0 C 8,3 C 96 % 1011,5 hPa 0,0 l/m 0 min 0 min 0 W/m 12,9 km/h (3 Bft) 100,00 %
02.11.2018 02:56 9,8 C 10,0 C 8,3 C 96 % 1011,5 hPa 0,0 l/m 0 min 0 min 0 W/m 9,7 km/h (2 Bft) 100,00 %
02.11.2018 02:58 9,8 C 10,0 C 8,3 C 95 % 1011,5 hPa 0,0 l/m 0 min 0 min 0 W/m 9,7 km/h (2 Bft) 100,00 %
02.11.2018 03:00 9,8 C 10,0 C 8,3 C 95 % 1011,7 hPa 0,0 l/m 0 min 0 min 0 W/m 16,1 km/h (3 Bft) 100,00 %
02.11.2018 03:02 9,9 C 10,0 C 8,3 C 95 % 1011,6 hPa 0,0 l/m 0 min 0 min 0 W/m 9,7 km/h (2 Bft) 100,00 %
02.11.2018 03:04 9,9 C 10,0 C 8,3 C 95 % 1011,7 hPa 0,0 l/m 0 min 0 min 0 W/m 19,3 km/h (3 Bft) 97,87 %
02.11.2018 03:08 9,9 C 10,0 C 8,3 C 95 % 1011,6 hPa 0,0 l/m 0 min 0 min 0 W/m 19,3 km/h (3 Bft) 100,00 %
02.11.2018 03:10 9,9 C 10,0 C 8,3 C 94 % 1011,7 hPa 0,0 l/m 0 min 0 min 0 W/m 16,1 km/h (3 Bft) 100,00 %
02.11.2018 03:12 10,0 C 10,0 C 8,3 C 94 % 1011,8 hPa 0,0 l/m 0 min 0 min 0 W/m 19,3 km/h (3 Bft) 100,00 %
02.11.2018 03:14 10,0 C 10,0 C 8,3 C 94 % 1011,8 hPa 0,0 l/m 0 min 0 min 0 W/m 9,7 km/h (2 Bft) 100,00 %
02.11.2018 03:16 10,0 C 10,0 C 8,3 C 94 % 1011,7 hPa 0,0 l/m 0 min 0 min 0 W/m 16,1 km/h (3 Bft) 97,87 %
02.11.2018 03:18 10,1 C 10,0 C 8,3 C 94 % 1011,8 hPa 0,0 l/m 0 min 0 min 0 W/m 12,9 km/h (3 Bft) 97,87 %
02.11.2018 03:20 10,1 C 10,0 C 8,3 C 93 % 1012,0 hPa 0,0 l/m 0 min 0 min 0 W/m 9,7 km/h (2 Bft) 97,87 %
02.11.2018 03:22 10,1 C 10,0 C 8,3 C 93 % 1012,1 hPa 0,0 l/m 0 min 0 min 0 W/m 12,9 km/h (3 Bft) 97,87 %
02.11.2018 03:24 10,1 C 10,0 C 8,3 C 93 % 1012,1 hPa 0,0 l/m 0 min 0 min 0 W/m 16,1 km/h (3 Bft) 97,87 %
02.11.2018 03:26 10,1 C 10,0 C 8,3 C 93 % 1012,0 hPa 0,0 l/m 0 min 0 min 0 W/m 16,1 km/h (3 Bft) 97,83 %
02.11.2018 03:28 10,1 C 10,0 C 8,3 C 93 % 1012,1 hPa 0,0 l/m 0 min 0 min 0 W/m 12,9 km/h (3 Bft) 97,87 %
02.11.2018 03:30 10,1 C 9,4 C 8,3 C 92 % 1012,1 hPa 0,0 l/m 0 min 0 min 0 W/m 22,5 km/h (4 Bft) 93,62 %
02.11.2018 03:32 10,1 C 9,4 C 8,3 C 92 % 1012,1 hPa 0,0 l/m 0 min 0 min 0 W/m 9,7 km/h (2 Bft) 97,87 %
02.11.2018 03:34 10,1 C 9,4 C 8,3 C 92 % 1012,2 hPa 0,0 l/m 0 min 0 min 0 W/m 16,1 km/h (3 Bft) 97,87 %
02.11.2018 03:38 10,1 C 9,4 C 8,3 C 91 % 1012,2 hPa 0,0 l/m 0 min 0 min 0 W/m 12,9 km/h (3 Bft) 97,85 %
02.11.2018 03:40 10,1 C 9,4 C 8,3 C 91 % 1012,2 hPa 0,0 l/m 0 min 0 min 0 W/m 12,9 km/h (3 Bft) 95,74 %
02.11.2018 03:42 10,1 C 9,4 C 8,3 C 91 % 1012,3 hPa 0,0 l/m 0 min 0 min 0 W/m 16,1 km/h (3 Bft) 97,87 %
02.11.2018 03:44 10,0 C 9,4 C 8,3 C 91 % 1012,3 hPa 0,0 l/m 0 min 0 min 0 W/m 16,1 km/h (3 Bft) 97,87 %
02.11.2018 03:46 10,1 C 9,4 C 8,3 C 91 % 1012,3 hPa 0,0 l/m 0 min 0 min 0 W/m 12,9 km/h (3 Bft) 95,74 %
02.11.2018 03:48 10,0 C 9,4 C 8,3 C 91 % 1012,3 hPa 0,0 l/m 0 min 0 min 0 W/m 12,9 km/h (3 Bft) 93,62 %
02.11.2018 03:50 10,0 C 9,4 C 8,3 C 91 % 1012,4 hPa 0,0 l/m 0 min 0 min 0 W/m 12,9 km/h (3 Bft) 95,65 %
02.11.2018 03:52 10,0 C 9,4 C 8,3 C 91 % 1012,4 hPa 0,0 l/m 0 min 0 min 0 W/m 12,9 km/h (3 Bft) 95,74 %
02.11.2018 03:54 10,0 C 9,4 C 8,9 C 91 % 1012,4 hPa 0,0 l/m 0 min 0 min 0 W/m 12,9 km/h (3 Bft) 93,62 %
02.11.2018 03:56 10,0 C 9,4 C 8,9 C 90 % 1012,4 hPa 0,0 l/m 0 min 0 min 0 W/m 9,7 km/h (2 Bft) 95,74 %
02.11.2018 03:58 9,9 C 9,4 C 8,9 C 90 % 1012,4 hPa 0,0 l/m 0 min 0 min 0 W/m 9,7 km/h (2 Bft) 93,62 %
02.11.2018 04:00 9,9 C 9,4 C 8,9 C 90 % 1012,5 hPa 0,0 l/m 0 min 0 min 0 W/m 16,1 km/h (3 Bft) 93,62 %
02.11.2018 04:02 9,9 C 8,9 C 8,9 C 90 % 1012,4 hPa 0,0 l/m 0 min 0 min 0 W/m 12,9 km/h (3 Bft) 100,00 %
02.11.2018 04:04 9,9 C 8,9 C 8,3 C 90 % 1012,6 hPa 0,0 l/m 0 min 0 min 0 W/m 12,9 km/h (3 Bft) 95,74 %
02.11.2018 04:08 9,8 C 8,9 C 8,3 C 90 % 1012,6 hPa 0,0 l/m 0 min 0 min 0 W/m 12,9 km/h (3 Bft) 94,74 %
02.11.2018 04:10 9,8 C 8,9 C 8,3 C 90 % 1012,7 hPa 0,0 l/m 0 min 0 min 0 W/m 12,9 km/h (3 Bft) 95,74 %
02.11.2018 04:12 9,8 C 8,9 C 8,3 C 90 % 1012,8 hPa 0,0 l/m 0 min 0 min 0 W/m 9,7 km/h (2 Bft) 97,83 %
02.11.2018 04:14 9,7 C 8,9 C 8,3 C 90 % 1012,7 hPa 0,0 l/m 0 min 0 min 0 W/m 16,1 km/h (3 Bft) 97,87 %
02.11.2018 04:16 9,7 C 8,9 C 8,3 C 90 % 1012,7 hPa 0,0 l/m 0 min 0 min 0 W/m 9,7 km/h (2 Bft) 95,74 %
02.11.2018 04:18 9,7 C 8,9 C 8,3 C 90 % 1012,8 hPa 0,0 l/m 0 min 0 min 0 W/m 16,1 km/h (3 Bft) 93,62 %
02.11.2018 04:20 9,7 C 8,9 C 8,3 C 90 % 1012,9 hPa 0,0 l/m 0 min 0 min 0 W/m 16,1 km/h (3 Bft) 93,62 %
02.11.2018 04:22 9,7 C 9,4 C 8,3 C 90 % 1012,9 hPa 0,0 l/m 0 min 0 min 0 W/m 12,9 km/h (3 Bft) 95,74 %
02.11.2018 04:24 9,7 C 9,4 C 8,3 C 90 % 1013,0 hPa 0,0 l/m 0 min 0 min 0 W/m 19,3 km/h (3 Bft) 95,65 %
02.11.2018 04:26 9,7 C 8,9 C 8,3 C 90 % 1013,0 hPa 0,0 l/m 0 min 0 min 0 W/m 9,7 km/h (2 Bft) 95,74 %
02.11.2018 04:28 9,7 C 9,4 C 8,3 C 90 % 1013,1 hPa 0,0 l/m 0 min 0 min 0 W/m 12,9 km/h (3 Bft) 95,74 %
02.11.2018 04:30 9,7 C 8,9 C 8,3 C 90 % 1013,2 hPa 0,0 l/m 0 min 0 min 0 W/m 16,1 km/h (3 Bft) 95,74 %
02.11.2018 04:32 9,7 C 8,9 C 8,3 C 90 % 1013,1 hPa 0,0 l/m 0 min 0 min 0 W/m 9,7 km/h (2 Bft) 95,74 %
02.11.2018 04:34 9,7 C 8,9 C 8,3 C 90 % 1013,1 hPa 0,0 l/m 0 min 0 min 0 W/m 12,9 km/h (3 Bft) 95,74 %
02.11.2018 04:38 9,7 C 8,9 C 8,3 C 90 % 1013,1 hPa 0,0 l/m 0 min 0 min 0 W/m 19,3 km/h (3 Bft) 95,70 %
02.11.2018 04:40 9,6 C 8,9 C 8,3 C 90 % 1013,2 hPa 0,0 l/m 0 min 0 min 0 W/m 22,5 km/h (4 Bft) 95,74 %
02.11.2018 04:42 9,6 C 8,9 C 8,3 C 90 % 1013,2 hPa 0,0 l/m 0 min 0 min 0 W/m 12,9 km/h (3 Bft) 93,62 %
02.11.2018 04:44 9,6 C 8,9 C 8,3 C 90 % 1013,3 hPa 0,0 l/m 0 min 0 min 0 W/m 9,7 km/h (2 Bft) 95,74 %
02.11.2018 04:46 9,6 C 8,9 C 8,3 C 90 % 1013,3 hPa 0,0 l/m 0 min 0 min 0 W/m 16,1 km/h (3 Bft) 97,87 %
02.11.2018 04:48 9,6 C 8,9 C 8,3 C 90 % 1013,4 hPa 0,0 l/m 0 min 0 min 0 W/m 12,9 km/h (3 Bft) 95,65 %
02.11.2018 04:50 9,6 C 8,9 C 8,3 C 90 % 1013,5 hPa 0,0 l/m 0 min 0 min 0 W/m 12,9 km/h (3 Bft) 97,87 %
02.11.2018 04:52 9,6 C 8,9 C 8,3 C 90 % 1013,5 hPa 0,0 l/m 0 min 0 min 0 W/m 16,1 km/h (3 Bft) 95,74 %
02.11.2018 04:54 9,6 C 8,9 C 8,3 C 90 % 1013,5 hPa 0,0 l/m 0 min 0 min 0 W/m 9,7 km/h (2 Bft) 97,87 %
02.11.2018 04:56 9,6 C 8,9 C 8,3 C 90 % 1013,5 hPa 0,0 l/m 0 min 0 min 0 W/m 9,7 km/h (2 Bft) 97,87 %
02.11.2018 04:58 9,6 C 8,9 C 8,3 C 90 % 1013,5 hPa 0,0 l/m 0 min 0 min 0 W/m 9,7 km/h (2 Bft) 93,48 %
02.11.2018 05:00 9,6 C 8,9 C 8,3 C 90 % 1013,5 hPa 0,0 l/m 0 min 0 min 0 W/m 16,1 km/h (3 Bft) 97,87 %
02.11.2018 05:02 9,6 C 8,9 C 8,3 C 90 % 1013,6 hPa 0,0 l/m 0 min 0 min 0 W/m 9,7 km/h (2 Bft) 97,87 %
02.11.2018 05:04 9,6 C 8,9 C 8,3 C 90 % 1013,6 hPa 0,0 l/m 0 min 0 min 0 W/m 12,9 km/h (3 Bft) 95,74 %
02.11.2018 05:05 9,6 C 8,9 C 8,3 C 90 % 1013,6 hPa 0,0 l/m 0 min 0 min 0 W/m 12,9 km/h (3 Bft) 100,00 %
02.11.2018 05:12 9,6 C 8,9 C 8,3 C 90 % 1013,7 hPa 0,0 l/m 0 min 0 min 0 W/m 9,7 km/h (2 Bft) 100,00 %
02.11.2018 05:14 9,6 C 8,9 C 8,3 C 90 % 1013,9 hPa 0,0 l/m 0 min 2 min 0 W/m 19,3 km/h (3 Bft) 95,74 %
02.11.2018 05:16 9,6 C 8,9 C 8,3 C 90 % 1013,9 hPa 0,0 l/m 0 min 2 min 0 W/m 16,1 km/h (3 Bft) 100,00 %
02.11.2018 05:18 9,6 C 8,3 C 8,3 C 90 % 1013,9 hPa 0,0 l/m 0 min 2 min 0 W/m 16,1 km/h (3 Bft) 100,00 %
02.11.2018 05:20 9,5 C 8,3 C 8,3 C 90 % 1014,1 hPa 0,0 l/m 0 min 2 min 0 W/m 12,9 km/h (3 Bft) 100,00 %
02.11.2018 05:22 9,5 C 8,3 C 8,3 C 90 % 1014,0 hPa 0,0 l/m 0 min 2 min 0 W/m 19,3 km/h (3 Bft) 100,00 %
02.11.2018 05:24 9,5 C 8,3 C 8,3 C 90 % 1014,1 hPa 0,0 l/m 0 min 0 min 0 W/m 22,5 km/h (4 Bft) 100,00 %
02.11.2018 05:26 9,5 C 8,9 C 8,3 C 90 % 1014,1 hPa 0,0 l/m 0 min 2 min 0 W/m 16,1 km/h (3 Bft) 100,00 %
02.11.2018 05:28 9,5 C 8,9 C 8,3 C 90 % 1014,1 hPa 0,0 l/m 0 min 2 min 0 W/m 9,7 km/h (2 Bft) 100,00 %
02.11.2018 05:30 9,5 C 8,9 C 8,3 C 90 % 1014,1 hPa 0,0 l/m 0 min 0 min 0 W/m 9,7 km/h (2 Bft) 100,00 %
02.11.2018 05:32 9,5 C 8,9 C 8,3 C 90 % 1014,0 hPa 0,0 l/m 0 min 0 min 0 W/m 16,1 km/h (3 Bft) 100,00 %
02.11.2018 05:34 9,4 C 8,9 C 8,3 C 90 % 1014,1 hPa 0,0 l/m 0 min 0 min 0 W/m 16,1 km/h (3 Bft) 100,00 %
02.11.2018 05:38 9,4 C 8,9 C 8,3 C 90 % 1014,3 hPa 0,0 l/m 0 min 0 min 0 W/m 19,3 km/h (3 Bft) 100,00 %
02.11.2018 05:40 9,4 C 8,9 C 8,3 C 90 % 1014,2 hPa 0,0 l/m 0 min 0 min 0 W/m 9,7 km/h (2 Bft) 100,00 %
02.11.2018 05:42 9,4 C 8,3 C 8,3 C 90 % 1014,3 hPa 0,0 l/m 0 min 0 min 0 W/m 12,9 km/h (3 Bft) 100,00 %
02.11.2018 05:44 9,4 C 8,3 C 8,3 C 90 % 1014,3 hPa 0,0 l/m 0 min 0 min 0 W/m 9,7 km/h (2 Bft) 100,00 %
02.11.2018 05:46 9,3 C 8,3 C 8,3 C 90 % 1014,3 hPa 0,0 l/m 0 min 0 min 0 W/m 12,9 km/h (3 Bft) 100,00 %
02.11.2018 05:48 9,3 C 8,3 C 8,3 C 90 % 1014,4 hPa 0,0 l/m 0 min 0 min 0 W/m 19,3 km/h (3 Bft) 100,00 %
02.11.2018 05:50 9,3 C 8,3 C 8,3 C 90 % 1014,5 hPa 0,0 l/m 0 min 0 min 0 W/m 19,3 km/h (3 Bft) 100,00 %
02.11.2018 05:52 9,2 C 8,3 C 7,8 C 90 % 1014,6 hPa 0,0 l/m 0 min 0 min 0 W/m 12,9 km/h (3 Bft) 100,00 %
02.11.2018 05:54 9,2 C 8,3 C 7,8 C 90 % 1014,6 hPa 0,0 l/m 0 min 0 min 0 W/m 9,7 km/h (2 Bft) 95,74 %
02.11.2018 05:56 9,2 C 8,3 C 7,8 C 90 % 1014,7 hPa 0,0 l/m 0 min 0 min 0 W/m 16,1 km/h (3 Bft) 100,00 %
02.11.2018 05:58 9,2 C 8,3 C 7,8 C 90 % 1014,8 hPa 0,0 l/m 0 min 0 min 0 W/m 16,1 km/h (3 Bft) 97,83 %
02.11.2018 06:00 9,2 C 8,3 C 7,8 C 90 % 1014,8 hPa 0,0 l/m 0 min 0 min 0 W/m 12,9 km/h (3 Bft) 95,74 %
02.11.2018 06:02 9,2 C 8,3 C 7,8 C 90 % 1014,9 hPa 0,0 l/m 0 min 0 min 0 W/m 16,1 km/h (3 Bft) 97,87 %
02.11.2018 06:04 9,2 C 8,3 C 7,8 C 90 % 1014,9 hPa 0,0 l/m 0 min 0 min 0 W/m 6,4 km/h (2 Bft) 97,87 %
02.11.2018 06:08 9,1 C 8,3 C 7,8 C 90 % 1015,0 hPa 0,0 l/m 0 min 0 min 0 W/m 9,7 km/h (2 Bft) 96,81 %
02.11.2018 06:10 9,1 C 8,3 C 7,8 C 90 % 1015,0 hPa 0,0 l/m 0 min 0 min 0 W/m 16,1 km/h (3 Bft) 97,83 %
02.11.2018 06:12 9,1 C 8,3 C 7,8 C 90 % 1015,1 hPa 0,0 l/m 0 min 0 min 0 W/m 12,9 km/h (3 Bft) 95,74 %
02.11.2018 06:14 9,1 C 8,3 C 7,8 C 90 % 1015,2 hPa 0,0 l/m 0 min 0 min 0 W/m 9,7 km/h (2 Bft) 97,87 %
02.11.2018 06:16 9,1 C 8,3 C 7,8 C 90 % 1015,2 hPa 0,0 l/m 0 min 0 min 0 W/m 9,7 km/h (2 Bft) 97,87 %
02.11.2018 06:18 9,1 C 8,3 C 7,8 C 90 % 1015,2 hPa 0,0 l/m 0 min 0 min 0 W/m 9,7 km/h (2 Bft) 95,74 %
02.11.2018 06:20 9,1 C 8,3 C 7,8 C 90 % 1015,2 hPa 0,0 l/m 0 min 0 min 0 W/m 6,4 km/h (2 Bft) 97,87 %
02.11.2018 06:22 9,1 C 8,3 C 7,8 C 90 % 1015,3 hPa 0,0 l/m 0 min 0 min 0 W/m 6,4 km/h (2 Bft) 97,83 %
02.11.2018 06:24 9,1 C 8,3 C 7,8 C 90 % 1015,3 hPa 0,0 l/m 0 min 0 min 0 W/m 12,9 km/h (3 Bft) 97,87 %
02.11.2018 06:26 9,1 C 8,3 C 7,8 C 90 % 1015,4 hPa 0,0 l/m 0 min 0 min 0 W/m 9,7 km/h (2 Bft) 95,74 %
02.11.2018 06:28 9,1 C 8,3 C 7,8 C 90 % 1015,4 hPa 0,0 l/m 0 min 0 min 0 W/m 9,7 km/h (2 Bft) 97,87 %
02.11.2018 06:30 9,1 C 7,8 C 7,8 C 90 % 1015,4 hPa 0,0 l/m 0 min 2 min 0 W/m 16,1 km/h (3 Bft) 97,87 %
02.11.2018 06:32 9,1 C 7,8 C 7,8 C 90 % 1015,4 hPa 0,0 l/m 0 min 0 min 0 W/m 12,9 km/h (3 Bft) 97,83 %
02.11.2018 06:34 9,1 C 7,8 C 7,8 C 90 % 1015,5 hPa 0,0 l/m 0 min 0 min 0 W/m 6,4 km/h (2 Bft) 97,87 %
02.11.2018 06:38 9,0 C 8,3 C 7,8 C 90 % 1015,6 hPa 0,0 l/m 0 min 0 min 0 W/m 9,7 km/h (2 Bft) 97,87 %
02.11.2018 06:40 9,0 C 8,3 C 7,8 C 90 % 1015,6 hPa 0,0 l/m 0 min 0 min 0 W/m 6,4 km/h (2 Bft) 97,87 %
02.11.2018 06:42 9,0 C 8,3 C 7,8 C 91 % 1015,7 hPa 0,0 l/m 0 min 0 min 0 W/m 9,7 km/h (2 Bft) 97,87 %
02.11.2018 06:44 9,0 C 8,3 C 7,8 C 91 % 1015,7 hPa 0,0 l/m 0 min 0 min 0 W/m 6,4 km/h (2 Bft) 97,83 %
02.11.2018 06:46 9,0 C 8,3 C 7,8 C 91 % 1015,7 hPa 0,0 l/m 0 min 0 min 0 W/m 3,2 km/h (1 Bft) 97,87 %
02.11.2018 06:48 9,0 C 8,3 C 7,8 C 91 % 1015,8 hPa 0,0 l/m 0 min 0 min 0 W/m 3,2 km/h (1 Bft) 95,74 %
02.11.2018 06:50 9,0 C 8,3 C 7,8 C 91 % 1015,8 hPa 0,0 l/m 0 min 0 min 0 W/m 3,2 km/h (1 Bft) 97,87 %
02.11.2018 06:52 9,0 C 8,3 C 7,8 C 91 % 1015,8 hPa 0,0 l/m 0 min 0 min 0 W/m 6,4 km/h (2 Bft) 100,00 %
02.11.2018 06:54 9,0 C 8,3 C 7,8 C 91 % 1015,9 hPa 0,0 l/m 0 min 0 min 0 W/m 3,2 km/h (1 Bft) 97,87 %
02.11.2018 06:56 9,0 C 8,3 C 7,8 C 91 % 1015,9 hPa 0,0 l/m 0 min 0 min 0 W/m 6,4 km/h (2 Bft) 91,30 %
02.11.2018 06:58 8,9 C 8,3 C 7,8 C 91 % 1016,0 hPa 0,0 l/m 0 min 0 min 0 W/m 3,2 km/h (1 Bft) 97,87 %
02.11.2018 07:00 8,9 C 8,3 C 7,8 C 91 % 1016,1 hPa 0,0 l/m 0 min 0 min 0 W/m 3,2 km/h (1 Bft) 97,87 %
02.11.2018 07:02 8,9 C 8,3 C 7,8 C 91 % 1016,1 hPa 0,0 l/m 0 min 0 min 0 W/m 6,4 km/h (2 Bft) 100,00 %
02.11.2018 07:04 8,9 C 8,3 C 7,8 C 91 % 1016,1 hPa 0,0 l/m 0 min 0 min 0 W/m 6,4 km/h (2 Bft) 95,74 %
02.11.2018 07:08 8,9 C 8,3 C 7,8 C 91 % 1016,2 hPa 0,0 l/m 0 min 0 min 0 W/m 6,4 km/h (2 Bft) 97,87 %
02.11.2018 07:10 8,9 C 8,3 C 7,8 C 91 % 1016,3 hPa 0,0 l/m 0 min 0 min 0 W/m 6,4 km/h (2 Bft) 97,83 %
02.11.2018 07:12 8,9 C 8,3 C 7,8 C 91 % 1016,3 hPa 0,0 l/m 0 min 0 min 0 W/m 9,7 km/h (2 Bft) 95,74 %
02.11.2018 07:14 8,9 C 8,3 C 7,8 C 91 % 1016,2 hPa 0,0 l/m 0 min 0 min 0 W/m 6,4 km/h (2 Bft) 97,87 %
02.11.2018 07:16 8,9 C 8,3 C 7,8 C 91 % 1016,3 hPa 0,0 l/m 0 min 0 min 0 W/m 6,4 km/h (2 Bft) 97,87 %
02.11.2018 07:18 8,9 C 8,3 C 7,8 C 91 % 1016,4 hPa 0,0 l/m 0 min 0 min 0 W/m 9,7 km/h (2 Bft) 97,87 %
02.11.2018 07:20 8,9 C 8,3 C 7,8 C 91 % 1016,4 hPa 0,0 l/m 0 min 0 min 0 W/m 9,7 km/h (2 Bft) 98,08 %
02.11.2018 07:22 8,9 C 8,3 C 7,8 C 91 % 1016,4 hPa 0,0 l/m 0 min 0 min 0 W/m 12,9 km/h (3 Bft) 95,12 %
02.11.2018 07:24 8,8 C 8,3 C 7,8 C 91 % 1016,5 hPa 0,0 l/m 0 min 0 min 0 W/m 9,7 km/h (2 Bft) 95,74 %
02.11.2018 07:26 8,8 C 8,3 C 7,8 C 91 % 1016,6 hPa 0,0 l/m 0 min 0 min 0 W/m 6,4 km/h (2 Bft) 91,49 %
02.11.2018 07:28 8,8 C 8,3 C 7,8 C 91 % 1016,6 hPa 0,0 l/m 0 min 0 min 0 W/m 9,7 km/h (2 Bft) 93,62 %
02.11.2018 07:30 8,8 C 8,3 C 7,8 C 91 % 1016,6 hPa 0,0 l/m 0 min 0 min 5 W/m 16,1 km/h (3 Bft) 95,74 %
02.11.2018 07:32 8,8 C 8,3 C 7,8 C 91 % 1016,7 hPa 0,0 l/m 0 min 0 min 5 W/m 6,4 km/h (2 Bft) 95,65 %
02.11.2018 07:34 8,8 C 8,3 C 7,8 C 91 % 1016,8 hPa 0,0 l/m 0 min 0 min 7 W/m 9,7 km/h (2 Bft) 93,62 %
02.11.2018 07:38 8,7 C 7,8 C 7,8 C 91 % 1016,9 hPa 0,0 l/m 0 min 0 min 9 W/m 9,7 km/h (2 Bft) 95,74 %
02.11.2018 07:40 8,7 C 7,8 C 7,8 C 91 % 1016,8 hPa 0,0 l/m 0 min 0 min 11 W/m 6,4 km/h (2 Bft) 95,74 %
02.11.2018 07:42 8,7 C 7,8 C 7,8 C 91 % 1016,8 hPa 0,0 l/m 0 min 0 min 11 W/m 6,4 km/h (2 Bft) 93,48 %
02.11.2018 07:44 8,7 C 7,8 C 7,8 C 91 % 1016,9 hPa 0,0 l/m 0 min 0 min 12 W/m 9,7 km/h (2 Bft) 93,62 %
02.11.2018 07:46 8,7 C 7,8 C 7,8 C 91 % 1016,9 hPa 0,0 l/m 0 min 0 min 12 W/m 9,7 km/h (2 Bft) 95,74 %
02.11.2018 07:48 8,7 C 7,8 C 7,8 C 91 % 1017,0 hPa 0,0 l/m 0 min 0 min 12 W/m 9,7 km/h (2 Bft) 95,74 %
02.11.2018 07:50 8,7 C 7,8 C 7,8 C 91 % 1017,0 hPa 0,0 l/m 0 min 0 min 13 W/m 19,3 km/h (3 Bft) 95,74 %
02.11.2018 07:52 8,6 C 7,8 C 7,8 C 91 % 1017,1 hPa 0,0 l/m 0 min 0 min 15 W/m 6,4 km/h (2 Bft) 95,74 %
02.11.2018 07:54 8,6 C 7,8 C 7,8 C 91 % 1017,1 hPa 0,0 l/m 0 min 0 min 15 W/m 6,4 km/h (2 Bft) 95,74 %
02.11.2018 07:56 8,6 C 7,8 C 7,8 C 91 % 1017,2 hPa 0,0 l/m 0 min 0 min 13 W/m 6,4 km/h (2 Bft) 97,83 %
02.11.2018 07:58 8,6 C 7,8 C 7,8 C 91 % 1017,1 hPa 0,0 l/m 0 min 0 min 12 W/m 9,7 km/h (2 Bft) 97,87 %
02.11.2018 08:00 8,6 C 7,8 C 7,8 C 91 % 1017,2 hPa 0,0 l/m 0 min 0 min 14 W/m 6,4 km/h (2 Bft) 97,87 %
02.11.2018 08:02 8,6 C 7,8 C 7,2 C 91 % 1017,3 hPa 0,0 l/m 0 min 0 min 18 W/m 6,4 km/h (2 Bft) 98,15 %
02.11.2018 08:04 8,6 C 7,8 C 7,2 C 91 % 1017,3 hPa 0,0 l/m 0 min 0 min 19 W/m 9,7 km/h (2 Bft) 97,87 %
02.11.2018 08:08 8,5 C 7,8 C 7,2 C 91 % 1017,4 hPa 0,0 l/m 0 min 0 min 20 W/m 9,7 km/h (2 Bft) 96,81 %
02.11.2018 08:10 8,5 C 7,8 C 7,2 C 91 % 1017,5 hPa 0,0 l/m 0 min 0 min 23 W/m 9,7 km/h (2 Bft) 95,74 %
02.11.2018 08:12 8,5 C 7,8 C 7,2 C 91 % 1017,6 hPa 0,0 l/m 0 min 0 min 24 W/m 9,7 km/h (2 Bft) 97,83 %
02.11.2018 08:14 8,4 C 7,8 C 7,2 C 91 % 1017,6 hPa 0,0 l/m 0 min 0 min 32 W/m 12,9 km/h (3 Bft) 97,87 %
02.11.2018 08:16 8,4 C 7,8 C 7,2 C 92 % 1017,6 hPa 0,0 l/m 0 min 0 min 29 W/m 9,7 km/h (2 Bft) 95,74 %
02.11.2018 08:18 8,4 C 7,8 C 7,2 C 92 % 1017,6 hPa 0,0 l/m 0 min 0 min 26 W/m 9,7 km/h (2 Bft) 97,87 %
02.11.2018 08:20 8,4 C 7,8 C 7,2 C 92 % 1017,7 hPa 0,0 l/m 0 min 0 min 27 W/m 12,9 km/h (3 Bft) 100,00 %
02.11.2018 08:22 8,4 C 7,8 C 7,2 C 92 % 1017,7 hPa 0,0 l/m 0 min 0 min 33 W/m 9,7 km/h (2 Bft) 97,87 %
02.11.2018 08:24 8,4 C 7,8 C 7,2 C 92 % 1017,8 hPa 0,0 l/m 0 min 0 min 32 W/m 9,7 km/h (2 Bft) 100,00 %
02.11.2018 08:26 8,4 C 7,8 C 7,2 C 92 % 1017,8 hPa 0,0 l/m 0 min 0 min 32 W/m 6,4 km/h (2 Bft) 100,00 %
02.11.2018 08:28 8,3 C 7,8 C 7,2 C 92 % 1017,9 hPa 0,0 l/m 0 min 0 min 34 W/m 12,9 km/h (3 Bft) 95,74 %
02.11.2018 08:30 8,3 C 7,8 C 7,2 C 92 % 1017,9 hPa 0,0 l/m 0 min 0 min 40 W/m 9,7 km/h (2 Bft) 100,00 %
02.11.2018 08:32 8,3 C 7,8 C 7,2 C 92 % 1018,0 hPa 0,0 l/m 0 min 0 min 49 W/m 6,4 km/h (2 Bft) 97,87 %
02.11.2018 08:34 8,3 C 7,8 C 7,2 C 92 % 1018,0 hPa 0,0 l/m 0 min 0 min 54 W/m 6,4 km/h (2 Bft) 100,00 %
02.11.2018 08:38 8,3 C 8,3 C 7,2 C 92 % 1018,2 hPa 0,0 l/m 0 min 0 min 69 W/m 12,9 km/h (3 Bft) 100,00 %
02.11.2018 08:40 8,3 C 8,3 C 7,2 C 92 % 1018,2 hPa 0,0 l/m 2 min 0 min 77 W/m 9,7 km/h (2 Bft) 100,00 %
02.11.2018 08:42 8,3 C 8,3 C 7,8 C 92 % 1018,2 hPa 0,0 l/m 0 min 0 min 66 W/m 9,7 km/h (2 Bft) 95,74 %
02.11.2018 08:44 8,3 C 8,3 C 7,8 C 92 % 1018,3 hPa 0,0 l/m 0 min 0 min 60 W/m 6,4 km/h (2 Bft) 97,87 %
02.11.2018 08:46 8,3 C 8,3 C 7,8 C 92 % 1018,2 hPa 0,0 l/m 0 min 0 min 50 W/m 9,7 km/h (2 Bft) 95,65 %
02.11.2018 08:48 8,3 C 8,3 C 7,8 C 92 % 1018,3 hPa 0,0 l/m 0 min 0 min 44 W/m 6,4 km/h (2 Bft) 97,87 %
02.11.2018 08:50 8,3 C 8,3 C 7,8 C 92 % 1018,4 hPa 0,0 l/m 0 min 0 min 46 W/m 16,1 km/h (3 Bft) 97,87 %
02.11.2018 08:52 8,3 C 8,3 C 7,8 C 92 % 1018,4 hPa 0,0 l/m 0 min 0 min 47 W/m 16,1 km/h (3 Bft) 95,74 %
02.11.2018 08:54 8,3 C 8,3 C 7,2 C 92 % 1018,4 hPa 0,0 l/m 0 min 0 min 52 W/m 12,9 km/h (3 Bft) 97,87 %
02.11.2018 08:56 8,3 C 8,3 C 7,8 C 92 % 1018,5 hPa 0,0 l/m 0 min 0 min 63 W/m 12,9 km/h (3 Bft) 97,87 %
02.11.2018 08:58 8,3 C 8,3 C 7,8 C 92 % 1018,4 hPa 0,0 l/m 0 min 0 min 77 W/m 9,7 km/h (2 Bft) 95,65 %
02.11.2018 09:00 8,4 C 8,3 C 7,8 C 92 % 1018,5 hPa 0,0 l/m 0 min 0 min 79 W/m 9,7 km/h (2 Bft) 97,22 %
02.11.2018 09:02 8,4 C 8,3 C 7,8 C 92 % 1018,5 hPa 0,0 l/m 0 min 0 min 75 W/m 9,7 km/h (2 Bft) 96,00 %
02.11.2018 09:04 8,4 C 8,3 C 7,8 C 92 % 1018,5 hPa 0,0 l/m 0 min 0 min 77 W/m 12,9 km/h (3 Bft) 97,87 %
02.11.2018 09:08 8,4 C 8,3 C 7,8 C 92 % 1018,5 hPa 0,0 l/m 0 min 0 min 72 W/m 12,9 km/h (3 Bft) 97,85 %
02.11.2018 09:10 8,4 C 8,3 C 7,8 C 92 % 1018,5 hPa 0,0 l/m 0 min 0 min 66 W/m 9,7 km/h (2 Bft) 95,74 %
02.11.2018 09:12 8,4 C 8,3 C 7,8 C 92 % 1018,5 hPa 0,0 l/m 0 min 0 min 76 W/m 9,7 km/h (2 Bft) 97,87 %
02.11.2018 09:14 8,4 C 8,3 C 7,8 C 92 % 1018,5 hPa 0,0 l/m 0 min 0 min 81 W/m 9,7 km/h (2 Bft) 97,87 %
02.11.2018 09:16 8,4 C 8,3 C 7,8 C 92 % 1018,5 hPa 0,0 l/m 0 min 0 min 73 W/m 6,4 km/h (2 Bft) 97,83 %
02.11.2018 09:18 8,4 C 8,3 C 7,8 C 92 % 1018,5 hPa 0,0 l/m 0 min 0 min 56 W/m 6,4 km/h (2 Bft) 97,87 %
02.11.2018 09:20 8,4 C 8,3 C 7,8 C 92 % 1018,5 hPa 0,0 l/m 0 min 0 min 57 W/m 9,7 km/h (2 Bft) 95,74 %
02.11.2018 09:22 8,4 C 8,3 C 7,8 C 92 % 1018,5 hPa 0,0 l/m 0 min 0 min 60 W/m 6,4 km/h (2 Bft) 97,87 %
02.11.2018 09:24 8,4 C 8,3 C 7,8 C 92 % 1018,4 hPa 0,0 l/m 0 min 0 min 62 W/m 3,2 km/h (1 Bft) 100,00 %
02.11.2018 09:26 8,4 C 8,3 C 7,8 C 92 % 1018,4 hPa 0,0 l/m 0 min 0 min 72 W/m 12,9 km/h (3 Bft) 100,00 %
02.11.2018 09:28 8,5 C 8,3 C 7,8 C 92 % 1018,4 hPa 0,0 l/m 0 min 0 min 89 W/m 9,7 km/h (2 Bft) 100,00 %
02.11.2018 09:30 8,5 C 8,9 C 7,8 C 92 % 1018,5 hPa 0,0 l/m 0 min 0 min 83 W/m 6,4 km/h (2 Bft) 97,87 %
02.11.2018 09:32 8,5 C 8,9 C 7,8 C 92 % 1018,5 hPa 0,0 l/m 0 min 0 min 82 W/m 9,7 km/h (2 Bft) 97,87 %
02.11.2018 09:34 8,5 C 8,9 C 7,8 C 92 % 1018,6 hPa 0,0 l/m 0 min 0 min 91 W/m 9,7 km/h (2 Bft) 100,00 %
02.11.2018 09:38 8,6 C 9,4 C 7,8 C 92 % 1018,7 hPa 0,0 l/m 0 min 0 min 111 W/m 9,7 km/h (2 Bft) 97,87 %
02.11.2018 09:40 8,6 C 8,9 C 7,8 C 92 % 1018,8 hPa 0,0 l/m 0 min 0 min 120 W/m 6,4 km/h (2 Bft) 95,65 %
02.11.2018 09:42 8,6 C 9,4 C 7,8 C 92 % 1019,0 hPa 0,0 l/m 0 min 0 min 101 W/m 9,7 km/h (2 Bft) 97,87 %
02.11.2018 09:44 8,6 C 9,4 C 7,8 C 92 % 1018,9 hPa 0,0 l/m 0 min 0 min 97 W/m 6,4 km/h (2 Bft) 97,87 %
02.11.2018 09:46 8,7 C 8,9 C 7,8 C 92 % 1018,9 hPa 0,0 l/m 0 min 0 min 89 W/m 9,7 km/h (2 Bft) 100,00 %
02.11.2018 09:48 8,7 C 8,9 C 7,8 C 91 % 1018,9 hPa 0,0 l/m 0 min 0 min 86 W/m 9,7 km/h (2 Bft) 97,87 %
02.11.2018 09:50 8,7 C 8,9 C 7,8 C 91 % 1018,8 hPa 0,0 l/m 0 min 0 min 79 W/m 9,7 km/h (2 Bft) 95,74 %
02.11.2018 09:52 8,7 C 8,9 C 7,8 C 91 % 1018,9 hPa 0,0 l/m 0 min 0 min 87 W/m 12,9 km/h (3 Bft) 97,83 %
02.11.2018 09:54 8,7 C 8,9 C 7,8 C 91 % 1019,0 hPa 0,0 l/m 0 min 0 min 101 W/m 9,7 km/h (2 Bft) 100,00 %
02.11.2018 09:56 8,7 C 9,4 C 7,8 C 91 % 1018,9 hPa 0,0 l/m 0 min 0 min 105 W/m 6,4 km/h (2 Bft) 97,87 %
02.11.2018 09:58 8,7 C 9,4 C 7,8 C 91 % 1019,0 hPa 0,0 l/m 0 min 0 min 88 W/m 6,4 km/h (2 Bft) 95,74 %
02.11.2018 10:00 8,7 C 9,4 C 7,8 C 91 % 1019,0 hPa 0,0 l/m 0 min 0 min 81 W/m 9,7 km/h (2 Bft) 97,87 %
02.11.2018 10:02 8,8 C 9,4 C 7,8 C 91 % 1019,0 hPa 0,0 l/m 0 min 0 min 80 W/m 9,7 km/h (2 Bft) 97,87 %
02.11.2018 10:04 8,8 C 9,4 C 7,8 C 91 % 1019,0 hPa 0,0 l/m 0 min 0 min 82 W/m 9,7 km/h (2 Bft) 97,83 %
02.11.2018 10:08 8,8 C 9,4 C 8,3 C 91 % 1019,1 hPa 0,0 l/m 0 min 0 min 94 W/m 9,7 km/h (2 Bft) 96,81 %
02.11.2018 10:10 8,9 C 9,4 C 8,3 C 90 % 1019,0 hPa 0,0 l/m 0 min 0 min 73 W/m 6,4 km/h (2 Bft) 97,87 %
02.11.2018 10:12 8,9 C 9,4 C 8,3 C 90 % 1019,0 hPa 0,0 l/m 0 min 0 min 69 W/m 6,4 km/h (2 Bft) 97,87 %
02.11.2018 10:14 8,9 C 9,4 C 8,3 C 90 % 1019,1 hPa 0,0 l/m 0 min 0 min 66 W/m 9,7 km/h (2 Bft) 97,87 %
02.11.2018 10:16 8,9 C 9,4 C 8,3 C 90 % 1019,1 hPa 0,0 l/m 0 min 0 min 68 W/m 6,4 km/h (2 Bft) 97,83 %
02.11.2018 10:18 9,0 C 10,0 C 8,3 C 90 % 1019,2 hPa 0,0 l/m 0 min 0 min 98 W/m 6,4 km/h (2 Bft) 95,74 %
02.11.2018 10:20 9,0 C 10,0 C 8,3 C 90 % 1019,3 hPa 0,0 l/m 0 min 0 min 106 W/m 12,9 km/h (3 Bft) 97,87 %
02.11.2018 10:22 9,1 C 10,0 C 8,3 C 90 % 1019,3 hPa 0,0 l/m 2 min 0 min 172 W/m 6,4 km/h (2 Bft) 97,87 %
02.11.2018 10:24 9,1 C 11,1 C 8,9 C 90 % 1019,4 hPa 0,0 l/m 0 min 0 min 150 W/m 9,7 km/h (2 Bft) 97,87 %
02.11.2018 10:26 9,1 C 12,2 C 8,9 C 89 % 1019,4 hPa 0,0 l/m 0 min 0 min 38 W/m 9,7 km/h (2 Bft) 97,83 %
02.11.2018 10:28 9,2 C 13,3 C 8,9 C 89 % 1019,3 hPa 0,0 l/m 0 min 0 min 27 W/m 6,4 km/h (2 Bft) 97,87 %
02.11.2018 10:30 9,2 C 12,2 C 8,9 C 89 % 1019,4 hPa 0,0 l/m 0 min 0 min 16 W/m 6,4 km/h (2 Bft) 95,74 %
02.11.2018 10:32 9,3 C 12,8 C 8,9 C 89 % 1019,4 hPa 0,0 l/m 2 min 0 min 353 W/m 3,2 km/h (1 Bft) 95,74 %
02.11.2018 10:34 9,4 C 11,1 C 8,3 C 90 % 1019,5 hPa 0,0 l/m 2 min 0 min 355 W/m 12,9 km/h (3 Bft) 95,74 %
02.11.2018 10:38 9,6 C 11,7 C 9,4 C 88 % 1019,5 hPa 0,4 l/m 4 min 0 min 360 W/m 3,2 km/h (1 Bft) 95,70 %
02.11.2018 10:40 10,0 C 11,1 C 9,4 C 88 % 1019,5 hPa 0,0 l/m 2 min 0 min 362 W/m 3,2 km/h (1 Bft) 97,87 %
02.11.2018 10:42 10,6 C 10,6 C 10,0 C 87 % 1019,5 hPa 0,0 l/m 2 min 0 min 364 W/m 0,0 km/h (0 Bft) 93,62 %
02.11.2018 10:44 11,0 C 10,6 C 10,6 C 85 % 1019,6 hPa 0,0 l/m 2 min 0 min 367 W/m 0,0 km/h (0 Bft) 93,62 %
02.11.2018 10:46 11,2 C 10,6 C 10,6 C 83 % 1019,6 hPa 0,0 l/m 2 min 0 min 369 W/m 0,0 km/h (0 Bft) 95,74 %
02.11.2018 10:48 11,1 C 11,7 C 10,6 C 82 % 1019,6 hPa 0,0 l/m 2 min 0 min 371 W/m 3,2 km/h (1 Bft) 93,62 %
02.11.2018 10:50 10,9 C 12,2 C 10,6 C 82 % 1019,7 hPa 0,0 l/m 2 min 0 min 373 W/m 6,4 km/h (2 Bft) 95,65 %
02.11.2018 10:52 10,7 C 12,8 C 10,6 C 82 % 1019,7 hPa 0,0 l/m 2 min 0 min 375 W/m 0,0 km/h (0 Bft) 95,74 %
02.11.2018 10:54 10,4 C 13,9 C 10,6 C 83 % 1019,8 hPa 0,0 l/m 2 min 0 min 377 W/m 3,2 km/h (1 Bft) 95,74 %
02.11.2018 10:56 10,2 C 12,8 C 10,0 C 83 % 1019,9 hPa 0,2 l/m 2 min 0 min 379 W/m 9,7 km/h (2 Bft) 95,74 %
02.11.2018 10:58 10,1 C 12,2 C 9,4 C 83 % 1019,9 hPa 0,0 l/m 2 min 0 min 324 W/m 12,9 km/h (3 Bft) 93,62 %
02.11.2018 11:00 10,0 C 12,2 C 9,4 C 84 % 1019,9 hPa 0,0 l/m 2 min 0 min 320 W/m 12,9 km/h (3 Bft) 91,49 %
02.11.2018 11:02 10,2 C 12,8 C 9,4 C 84 % 1019,9 hPa 0,0 l/m 2 min 0 min 361 W/m 12,9 km/h (3 Bft) 95,65 %
02.11.2018 11:04 10,2 C 13,9 C 10,0 C 83 % 1019,9 hPa 0,0 l/m 2 min 0 min 326 W/m 9,7 km/h (2 Bft) 97,87 %
02.11.2018 11:08 10,2 C 15,6 C 10,0 C 83 % 1020,0 hPa 0,0 l/m 4 min 0 min 372 W/m 9,7 km/h (2 Bft) 93,62 %
02.11.2018 11:10 10,3 C 16,7 C 10,0 C 84 % 1020,1 hPa 0,0 l/m 2 min 0 min 353 W/m 9,7 km/h (2 Bft) 95,74 %
02.11.2018 11:12 10,3 C 15,0 C 11,1 C 83 % 1020,1 hPa 0,2 l/m 2 min 0 min 443 W/m 19,3 km/h (3 Bft) 95,74 %
02.11.2018 11:14 10,2 C 15,0 C 10,0 C 82 % 1020,1 hPa 0,0 l/m 2 min 0 min 436 W/m 9,7 km/h (2 Bft) 95,65 %
02.11.2018 11:16 10,3 C 16,1 C 10,0 C 83 % 1020,1 hPa 0,0 l/m 2 min 0 min 430 W/m 9,7 km/h (2 Bft) 95,74 %
02.11.2018 11:18 10,5 C 16,7 C 9,4 C 84 % 1020,1 hPa 0,0 l/m 2 min 0 min 436 W/m 9,7 km/h (2 Bft) 95,74 %
02.11.2018 11:20 10,5 C 16,7 C 9,4 C 83 % 1020,2 hPa 0,0 l/m 2 min 0 min 435 W/m 6,4 km/h (2 Bft) 95,74 %
02.11.2018 11:22 10,4 C 16,1 C 9,4 C 83 % 1020,1 hPa 0,0 l/m 2 min 0 min 437 W/m 6,4 km/h (2 Bft) 95,74 %
02.11.2018 11:24 10,6 C 17,8 C 9,4 C 84 % 1020,2 hPa 0,0 l/m 2 min 0 min 443 W/m 9,7 km/h (2 Bft) 97,87 %
02.11.2018 11:26 10,7 C 17,2 C 9,4 C 83 % 1020,3 hPa 0,0 l/m 2 min 0 min 440 W/m 9,7 km/h (2 Bft) 95,65 %
02.11.2018 11:28 10,6 C 16,1 C 9,4 C 82 % 1020,3 hPa 0,0 l/m 2 min 0 min 439 W/m 19,3 km/h (3 Bft) 91,49 %
02.11.2018 11:30 10,6 C 16,7 C 9,4 C 82 % 1020,2 hPa 0,0 l/m 2 min 0 min 447 W/m 12,9 km/h (3 Bft) 97,87 %
02.11.2018 11:32 10,6 C 16,1 C 9,4 C 82 % 1020,3 hPa 0,0 l/m 2 min 0 min 447 W/m 6,4 km/h (2 Bft) 95,74 %
02.11.2018 11:34 10,8 C 16,7 C 9,4 C 83 % 1020,3 hPa 0,0 l/m 2 min 0 min 444 W/m 6,4 km/h (2 Bft) 91,49 %
02.11.2018 11:38 11,2 C 18,9 C 9,4 C 82 % 1020,2 hPa 0,0 l/m 4 min 0 min 452 W/m 9,7 km/h (2 Bft) 91,40 %
02.11.2018 11:40 11,3 C 18,9 C 9,4 C 81 % 1020,1 hPa 0,0 l/m 2 min 0 min 454 W/m 6,4 km/h (2 Bft) 100,00 %
02.11.2018 11:42 11,4 C 19,4 C 10,0 C 82 % 1020,2 hPa 0,0 l/m 2 min 0 min 456 W/m 6,4 km/h (2 Bft) 100,00 %
02.11.2018 11:44 11,4 C 18,3 C 10,0 C 80 % 1020,3 hPa 0,0 l/m 2 min 0 min 452 W/m 9,7 km/h (2 Bft) 100,00 %
02.11.2018 11:46 11,4 C 17,8 C 10,0 C 80 % 1020,3 hPa 0,0 l/m 2 min 0 min 467 W/m 9,7 km/h (2 Bft) 97,87 %
02.11.2018 11:48 11,3 C 17,8 C 10,6 C 80 % 1020,4 hPa 0,0 l/m 2 min 0 min 459 W/m 6,4 km/h (2 Bft) 100,00 %
02.11.2018 11:50 11,1 C 16,7 C 10,6 C 80 % 1020,5 hPa 0,0 l/m 2 min 0 min 455 W/m 9,7 km/h (2 Bft) 100,00 %
02.11.2018 11:52 11,2 C 18,3 C 10,6 C 81 % 1020,5 hPa 0,0 l/m 2 min 0 min 446 W/m 9,7 km/h (2 Bft) 97,87 %
02.11.2018 11:54 11,4 C 18,9 C 11,7 C 80 % 1020,4 hPa 0,0 l/m 2 min 0 min 477 W/m 6,4 km/h (2 Bft) 100,00 %
02.11.2018 11:56 11,4 C 18,3 C 11,7 C 79 % 1020,4 hPa 0,0 l/m 2 min 0 min 502 W/m 9,7 km/h (2 Bft) 100,00 %
02.11.2018 11:58 11,6 C 18,9 C 11,7 C 79 % 1020,4 hPa 0,0 l/m 2 min 0 min 557 W/m 6,4 km/h (2 Bft) 91,49 %
02.11.2018 12:00 11,7 C 19,4 C 11,7 C 78 % 1020,4 hPa 0,0 l/m 2 min 0 min 416 W/m 6,4 km/h (2 Bft) 95,65 %
02.11.2018 12:02 11,9 C 18,9 C 11,7 C 78 % 1020,5 hPa 0,0 l/m 2 min 0 min 416 W/m 9,7 km/h (2 Bft) 95,74 %
02.11.2018 12:04 11,9 C 17,2 C 11,1 C 77 % 1020,5 hPa 0,0 l/m 2 min 0 min 549 W/m 12,9 km/h (3 Bft) 100,00 %
02.11.2018 12:08 11,9 C 18,3 C 11,7 C 76 % 1020,5 hPa 0,0 l/m 4 min 0 min 347 W/m 9,7 km/h (2 Bft) 98,94 %
02.11.2018 12:10 12,1 C 20,0 C 13,3 C 76 % 1020,4 hPa 0,0 l/m 2 min 0 min 417 W/m 12,9 km/h (3 Bft) 97,87 %
02.11.2018 12:12 12,4 C 21,1 C 15,0 C 76 % 1020,6 hPa 0,0 l/m 2 min 0 min 417 W/m 12,9 km/h (3 Bft) 100,00 %
02.11.2018 12:14 12,3 C 19,4 C 15,6 C 74 % 1020,5 hPa 0,0 l/m 2 min 0 min 417 W/m 9,7 km/h (2 Bft) 100,00 %
02.11.2018 12:16 12,3 C 20,6 C 16,7 C 73 % 1020,5 hPa 0,0 l/m 2 min 0 min 418 W/m 12,9 km/h (3 Bft) 97,87 %
02.11.2018 12:18 12,2 C 20,0 C 17,8 C 74 % 1020,6 hPa 0,0 l/m 2 min 0 min 418 W/m 12,9 km/h (3 Bft) 97,87 %
02.11.2018 12:20 12,0 C 18,9 C 17,2 C 74 % 1020,6 hPa 0,0 l/m 2 min 0 min 550 W/m 12,9 km/h (3 Bft) 100,00 %
02.11.2018 12:22 11,9 C 18,9 C 16,1 C 75 % 1020,5 hPa 0,0 l/m 2 min 0 min 527 W/m 9,7 km/h (2 Bft) 100,00 %
02.11.2018 12:24 12,4 C 21,1 C 14,4 C 76 % 1020,6 hPa 0,0 l/m 2 min 0 min 539 W/m 6,4 km/h (2 Bft) 100,00 %
02.11.2018 12:26 12,9 C 22,2 C 13,9 C 75 % 1020,6 hPa 0,0 l/m 2 min 0 min 543 W/m 9,7 km/h (2 Bft) 100,00 %
02.11.2018 12:28 13,2 C 22,2 C 12,8 C 74 % 1020,6 hPa 0,0 l/m 2 min 0 min 532 W/m 9,7 km/h (2 Bft) 100,00 %
02.11.2018 12:30 12,9 C 20,0 C 12,8 C 70 % 1020,6 hPa 0,0 l/m 2 min 0 min 515 W/m 12,9 km/h (3 Bft) 100,00 %
02.11.2018 12:32 12,9 C 20,6 C 12,2 C 72 % 1020,6 hPa 0,0 l/m 2 min 0 min 474 W/m 3,2 km/h (1 Bft) 100,00 %
02.11.2018 12:34 12,9 C 20,6 C 12,2 C 73 % 1020,7 hPa 0,0 l/m 2 min 0 min 486 W/m 12,9 km/h (3 Bft) 100,00 %
02.11.2018 12:38 13,1 C 18,3 C 11,7 C 73 % 1020,8 hPa 0,0 l/m 4 min 0 min 494 W/m 9,7 km/h (2 Bft) 98,92 %
02.11.2018 12:40 12,7 C 15,6 C 11,1 C 72 % 1020,7 hPa 0,0 l/m 0 min 0 min 76 W/m 6,4 km/h (2 Bft) 100,00 %
02.11.2018 12:42 12,4 C 13,9 C 11,1 C 73 % 1020,8 hPa 0,0 l/m 0 min 0 min 64 W/m 9,7 km/h (2 Bft) 100,00 %
02.11.2018 12:44 12,1 C 12,8 C 10,6 C 73 % 1020,8 hPa 0,0 l/m 0 min 0 min 57 W/m 19,3 km/h (3 Bft) 100,00 %
02.11.2018 12:46 11,8 C 12,2 C 10,6 C 75 % 1020,7 hPa 0,0 l/m 0 min 0 min 57 W/m 6,4 km/h (2 Bft) 100,00 %
02.11.2018 12:48 11,6 C 11,7 C 10,6 C 76 % 1020,8 hPa 0,0 l/m 0 min 0 min 58 W/m 6,4 km/h (2 Bft) 100,00 %
02.11.2018 12:50 11,3 C 11,7 C 10,6 C 76 % 1020,9 hPa 0,0 l/m 0 min 0 min 76 W/m 9,7 km/h (2 Bft) 100,00 %
02.11.2018 12:52 11,2 C 11,7 C 10,0 C 77 % 1020,8 hPa 0,0 l/m 0 min 0 min 94 W/m 9,7 km/h (2 Bft) 95,74 %
02.11.2018 12:54 11,0 C 11,7 C 10,0 C 78 % 1020,9 hPa 0,0 l/m 0 min 0 min 105 W/m 9,7 km/h (2 Bft) 100,00 %
02.11.2018 12:56 10,9 C 11,7 C 10,0 C 78 % 1020,8 hPa 0,0 l/m 0 min 0 min 102 W/m 6,4 km/h (2 Bft) 97,87 %
02.11.2018 12:58 10,9 C 14,4 C 10,6 C 78 % 1020,8 hPa 0,0 l/m 2 min 0 min 330 W/m 6,4 km/h (2 Bft) 100,00 %
02.11.2018 13:00 11,2 C 16,7 C 10,6 C 78 % 1020,8 hPa 0,0 l/m 2 min 0 min 466 W/m 6,4 km/h (2 Bft) 97,87 %
02.11.2018 13:02 11,7 C 17,8 C 10,6 C 78 % 1020,7 hPa 0,0 l/m 2 min 0 min 457 W/m 6,4 km/h (2 Bft) 97,87 %
02.11.2018 13:04 11,8 C 18,9 C 10,6 C 76 % 1020,7 hPa 0,0 l/m 2 min 0 min 460 W/m 6,4 km/h (2 Bft) 97,87 %
02.11.2018 13:08 12,2 C 20,6 C 10,6 C 73 % 1020,7 hPa 0,0 l/m 4 min 0 min 462 W/m 9,7 km/h (2 Bft) 97,87 %
02.11.2018 13:10 12,2 C 20,6 C 10,6 C 73 % 1020,8 hPa 0,0 l/m 2 min 0 min 455 W/m 9,7 km/h (2 Bft) 97,83 %
02.11.2018 13:12 12,4 C 22,2 C 10,6 C 75 % 1020,7 hPa 0,0 l/m 2 min 0 min 462 W/m 6,4 km/h (2 Bft) 97,87 %
02.11.2018 13:14 12,7 C 22,2 C 10,6 C 74 % 1020,8 hPa 0,0 l/m 2 min 0 min 470 W/m 12,9 km/h (3 Bft) 97,87 %
02.11.2018 13:16 12,7 C 20,6 C 10,6 C 71 % 1020,8 hPa 0,0 l/m 2 min 0 min 473 W/m 12,9 km/h (3 Bft) 95,74 %
02.11.2018 13:18 12,7 C 20,0 C 11,1 C 69 % 1020,8 hPa 0,0 l/m 2 min 0 min 486 W/m 16,1 km/h (3 Bft) 95,74 %
02.11.2018 13:20 12,7 C 20,0 C 11,1 C 67 % 1020,8 hPa 0,0 l/m 2 min 0 min 501 W/m 6,4 km/h (2 Bft) 95,74 %
02.11.2018 13:22 12,7 C 20,6 C 11,1 C 68 % 1020,8 hPa 0,0 l/m 2 min 0 min 516 W/m 16,1 km/h (3 Bft) 91,30 %
02.11.2018 13:24 12,9 C 21,1 C 11,1 C 70 % 1020,9 hPa 0,0 l/m 2 min 0 min 520 W/m 9,7 km/h (2 Bft) 95,74 %
02.11.2018 13:26 13,1 C 21,1 C 11,1 C 70 % 1020,9 hPa 0,0 l/m 2 min 0 min 527 W/m 9,7 km/h (2 Bft) 95,74 %
02.11.2018 13:28 13,1 C 21,7 C 11,1 C 71 % 1021,0 hPa 0,0 l/m 2 min 0 min 508 W/m 12,9 km/h (3 Bft) 95,74 %
02.11.2018 13:30 13,2 C 21,7 C 11,1 C 72 % 1021,0 hPa 0,0 l/m 2 min 0 min 469 W/m 12,9 km/h (3 Bft) 95,74 %
02.11.2018 13:32 13,0 C 19,4 C 11,1 C 71 % 1021,1 hPa 0,0 l/m 2 min 0 min 445 W/m 9,7 km/h (2 Bft) 95,74 %
02.11.2018 13:34 12,7 C 17,8 C 11,1 C 69 % 1021,1 hPa 0,0 l/m 2 min 0 min 370 W/m 9,7 km/h (2 Bft) 95,65 %
02.11.2018 13:38 12,6 C 20,0 C 11,1 C 73 % 1021,2 hPa 0,0 l/m 4 min 0 min 351 W/m 6,4 km/h (2 Bft) 94,68 %
02.11.2018 13:40 12,7 C 21,1 C 11,1 C 71 % 1021,2 hPa 0,0 l/m 2 min 0 min 441 W/m 9,7 km/h (2 Bft) 93,62 %
02.11.2018 13:42 12,7 C 21,7 C 11,1 C 71 % 1021,2 hPa 0,0 l/m 2 min 0 min 460 W/m 9,7 km/h (2 Bft) 97,87 %
02.11.2018 13:44 12,7 C 21,7 C 11,1 C 71 % 1021,2 hPa 0,0 l/m 2 min 0 min 438 W/m 16,1 km/h (3 Bft) 95,74 %
02.11.2018 13:46 12,8 C 21,1 C 11,1 C 67 % 1021,2 hPa 0,0 l/m 2 min 0 min 430 W/m 9,7 km/h (2 Bft) 97,87 %
02.11.2018 13:48 12,9 C 20,6 C 11,1 C 66 % 1021,2 hPa 0,0 l/m 2 min 0 min 377 W/m 12,9 km/h (3 Bft) 97,83 %
02.11.2018 13:50 12,7 C 17,8 C 10,6 C 67 % 1021,2 hPa 0,0 l/m 2 min 0 min 180 W/m 3,2 km/h (1 Bft) 97,87 %
02.11.2018 13:52 12,3 C 15,6 C 10,6 C 65 % 1021,2 hPa 0,0 l/m 0 min 0 min 74 W/m 9,7 km/h (2 Bft) 97,87 %
02.11.2018 13:54 11,9 C 13,9 C 10,0 C 65 % 1021,3 hPa 0,0 l/m 0 min 0 min 65 W/m 6,4 km/h (2 Bft) 97,87 %
02.11.2018 13:56 11,6 C 15,0 C 10,0 C 66 % 1021,3 hPa 0,0 l/m 0 min 0 min 131 W/m 6,4 km/h (2 Bft) 100,00 %
02.11.2018 13:58 11,6 C 13,3 C 10,6 C 65 % 1021,3 hPa 0,0 l/m 2 min 0 min 316 W/m 16,1 km/h (3 Bft) 100,00 %
02.11.2018 14:00 11,4 C 13,9 C 10,6 C 65 % 1021,3 hPa 0,0 l/m 0 min 0 min 90 W/m 9,7 km/h (2 Bft) 97,87 %
02.11.2018 14:02 11,6 C 15,6 C 10,6 C 66 % 1021,3 hPa 0,0 l/m 2 min 0 min 402 W/m 6,4 km/h (2 Bft) 100,00 %
02.11.2018 14:04 11,9 C 17,8 C 10,6 C 67 % 1021,3 hPa 0,0 l/m 2 min 0 min 401 W/m 9,7 km/h (2 Bft) 100,00 %
02.11.2018 14:08 11,8 C 15,0 C 10,6 C 65 % 1021,3 hPa 0,0 l/m 0 min 0 min 155 W/m 9,7 km/h (2 Bft) 100,00 %
02.11.2018 14:10 11,7 C 15,6 C 10,6 C 65 % 1021,3 hPa 0,0 l/m 2 min 0 min 271 W/m 12,9 km/h (3 Bft) 97,87 %
02.11.2018 14:12 11,7 C 16,7 C 10,6 C 64 % 1021,3 hPa 0,0 l/m 2 min 0 min 359 W/m 9,7 km/h (2 Bft) 100,00 %
02.11.2018 14:14 11,9 C 17,8 C 10,6 C 65 % 1021,4 hPa 0,0 l/m 2 min 0 min 369 W/m 6,4 km/h (2 Bft) 100,00 %
02.11.2018 14:16 11,9 C 17,2 C 10,6 C 63 % 1021,3 hPa 0,0 l/m 2 min 0 min 361 W/m 16,1 km/h (3 Bft) 100,00 %
02.11.2018 14:18 11,9 C 17,2 C 10,6 C 64 % 1021,3 hPa 0,0 l/m 2 min 0 min 356 W/m 9,7 km/h (2 Bft) 100,00 %
02.11.2018 14:20 12,1 C 18,3 C 10,6 C 66 % 1021,4 hPa 0,0 l/m 2 min 0 min 358 W/m 12,9 km/h (3 Bft) 100,00 %
02.11.2018 14:22 12,1 C 17,2 C 10,6 C 65 % 1021,4 hPa 0,0 l/m 2 min 0 min 359 W/m 6,4 km/h (2 Bft) 100,00 %
02.11.2018 14:24 11,9 C 13,9 C 10,6 C 65 % 1021,4 hPa 0,0 l/m 2 min 0 min 201 W/m 9,7 km/h (2 Bft) 100,00 %
02.11.2018 14:26 11,8 C 12,8 C 10,0 C 66 % 1021,4 hPa 0,0 l/m 0 min 0 min 45 W/m 6,4 km/h (2 Bft) 100,00 %
02.11.2018 14:28 11,6 C 11,7 C 10,0 C 65 % 1021,4 hPa 0,0 l/m 0 min 0 min 46 W/m 6,4 km/h (2 Bft) 100,00 %
02.11.2018 14:30 11,3 C 11,1 C 10,0 C 65 % 1021,3 hPa 0,0 l/m 0 min 0 min 44 W/m 6,4 km/h (2 Bft) 100,00 %
02.11.2018 14:32 11,1 C 11,1 C 9,4 C 66 % 1021,4 hPa 0,0 l/m 0 min 0 min 50 W/m 3,2 km/h (1 Bft) 100,00 %
02.11.2018 14:34 10,9 C 10,6 C 9,4 C 65 % 1021,4 hPa 0,0 l/m 0 min 0 min 55 W/m 6,4 km/h (2 Bft) 100,00 %
02.11.2018 14:38 10,7 C 10,6 C 9,4 C 65 % 1021,5 hPa 0,0 l/m 0 min 0 min 47 W/m 12,9 km/h (3 Bft) 100,00 %
02.11.2018 14:40 10,6 C 10,0 C 9,4 C 66 % 1021,5 hPa 0,0 l/m 0 min 0 min 48 W/m 6,4 km/h (2 Bft) 100,00 %
02.11.2018 14:42 10,5 C 10,6 C 9,4 C 67 % 1021,5 hPa 0,0 l/m 0 min 0 min 61 W/m 3,2 km/h (1 Bft) 100,00 %
02.11.2018 14:44 10,4 C 10,6 C 9,4 C 67 % 1021,5 hPa 0,0 l/m 0 min 0 min 66 W/m 9,7 km/h (2 Bft) 100,00 %
02.11.2018 14:46 10,3 C 11,1 C 9,4 C 68 % 1021,5 hPa 0,0 l/m 0 min 0 min 75 W/m 9,7 km/h (2 Bft) 100,00 %
02.11.2018 14:48 10,5 C 13,3 C 9,4 C 68 % 1021,6 hPa 0,0 l/m 2 min 0 min 209 W/m 9,7 km/h (2 Bft) 97,87 %
02.11.2018 14:50 10,8 C 15,6 C 9,4 C 69 % 1021,6 hPa 0,0 l/m 2 min 0 min 313 W/m 6,4 km/h (2 Bft) 100,00 %
02.11.2018 14:52 10,9 C 15,6 C 9,4 C 68 % 1021,7 hPa 0,0 l/m 2 min 0 min 309 W/m 9,7 km/h (2 Bft) 100,00 %
02.11.2018 14:54 11,1 C 16,7 C 10,0 C 68 % 1021,7 hPa 0,0 l/m 2 min 0 min 303 W/m 6,4 km/h (2 Bft) 100,00 %
02.11.2018 14:56 11,2 C 16,7 C 10,0 C 67 % 1021,7 hPa 0,0 l/m 2 min 0 min 291 W/m 3,2 km/h (1 Bft) 100,00 %
02.11.2018 14:58 11,3 C 16,7 C 10,0 C 67 % 1021,8 hPa 0,0 l/m 2 min 0 min 286 W/m 6,4 km/h (2 Bft) 100,00 %
02.11.2018 15:00 11,3 C 16,1 C 10,0 C 67 % 1021,9 hPa 0,0 l/m 2 min 0 min 282 W/m 6,4 km/h (2 Bft) 97,87 %
02.11.2018 15:02 11,3 C 16,7 C 10,0 C 67 % 1021,9 hPa 0,0 l/m 2 min 0 min 271 W/m 3,2 km/h (1 Bft) 100,00 %
02.11.2018 15:04 11,3 C 16,1 C 10,0 C 67 % 1021,9 hPa 0,0 l/m 2 min 0 min 268 W/m 9,7 km/h (2 Bft) 100,00 %
02.11.2018 15:08 11,3 C 16,7 C 9,4 C 68 % 1021,9 hPa 0,0 l/m 4 min 0 min 261 W/m 9,7 km/h (2 Bft) 100,00 %
02.11.2018 15:10 11,3 C 15,6 C 9,4 C 67 % 1022,0 hPa 0,0 l/m 2 min 0 min 248 W/m 16,1 km/h (3 Bft) 100,00 %
02.11.2018 15:12 11,3 C 16,1 C 9,4 C 67 % 1022,0 hPa 0,0 l/m 2 min 0 min 251 W/m 9,7 km/h (2 Bft) 100,00 %
02.11.2018 15:14 11,2 C 16,7 C 9,4 C 69 % 1022,0 hPa 0,0 l/m 2 min 0 min 250 W/m 6,4 km/h (2 Bft) 100,00 %
02.11.2018 15:16 11,1 C 16,1 C 9,4 C 69 % 1022,0 hPa 0,0 l/m 2 min 0 min 252 W/m 9,7 km/h (2 Bft) 97,87 %
02.11.2018 15:18 11,1 C 15,6 C 9,4 C 68 % 1022,1 hPa 0,0 l/m 2 min 0 min 247 W/m 9,7 km/h (2 Bft) 100,00 %
02.11.2018 15:20 11,1 C 14,4 C 9,4 C 66 % 1022,2 hPa 0,0 l/m 2 min 0 min 243 W/m 12,9 km/h (3 Bft) 100,00 %
02.11.2018 15:22 11,1 C 14,4 C 9,4 C 67 % 1022,2 hPa 0,0 l/m 2 min 0 min 239 W/m 6,4 km/h (2 Bft) 97,87 %
02.11.2018 15:24 11,1 C 13,9 C 9,4 C 69 % 1022,2 hPa 0,0 l/m 2 min 0 min 233 W/m 6,4 km/h (2 Bft) 100,00 %
02.11.2018 15:26 11,0 C 12,8 C 9,4 C 68 % 1022,2 hPa 0,0 l/m 2 min 0 min 225 W/m 3,2 km/h (1 Bft) 100,00 %
02.11.2018 15:28 11,0 C 12,2 C 9,4 C 68 % 1022,2 hPa 0,0 l/m 2 min 0 min 220 W/m 6,4 km/h (2 Bft) 95,74 %
02.11.2018 15:30 11,0 C 11,7 C 9,4 C 68 % 1022,3 hPa 0,0 l/m 2 min 0 min 203 W/m 3,2 km/h (1 Bft) 97,87 %
02.11.2018 15:32 10,9 C 11,1 C 9,4 C 69 % 1022,4 hPa 0,0 l/m 2 min 0 min 199 W/m 6,4 km/h (2 Bft) 95,74 %
02.11.2018 15:34 10,9 C 11,1 C 9,4 C 69 % 1022,5 hPa 0,0 l/m 2 min 0 min 191 W/m 6,4 km/h (2 Bft) 93,62 %
02.11.2018 15:38 10,9 C 10,6 C 9,4 C 68 % 1022,5 hPa 0,0 l/m 4 min 0 min 186 W/m 12,9 km/h (3 Bft) 93,55 %
02.11.2018 15:40 10,9 C 10,6 C 9,4 C 68 % 1022,5 hPa 0,0 l/m 2 min 0 min 145 W/m 9,7 km/h (2 Bft) 95,74 %
02.11.2018 15:42 10,9 C 10,6 C 9,4 C 67 % 1022,5 hPa 0,0 l/m 0 min 0 min 71 W/m 6,4 km/h (2 Bft) 95,74 %
02.11.2018 15:44 10,8 C 10,6 C 9,4 C 68 % 1022,5 hPa 0,0 l/m 0 min 0 min 51 W/m 6,4 km/h (2 Bft) 93,62 %
02.11.2018 15:46 10,8 C 10,6 C 9,4 C 67 % 1022,6 hPa 0,0 l/m 0 min 0 min 51 W/m 6,4 km/h (2 Bft) 95,74 %
02.11.2018 15:48 10,8 C 10,6 C 9,4 C 67 % 1022,6 hPa 0,0 l/m 0 min 0 min 49 W/m 3,2 km/h (1 Bft) 97,83 %
02.11.2018 15:50 10,8 C 10,6 C 8,9 C 69 % 1022,8 hPa 0,0 l/m 0 min 0 min 49 W/m 6,4 km/h (2 Bft) 95,74 %
02.11.2018 15:52 10,8 C 10,6 C 9,4 C 69 % 1022,8 hPa 0,0 l/m 0 min 0 min 49 W/m 3,2 km/h (1 Bft) 93,62 %
02.11.2018 15:54 10,8 C 10,6 C 9,4 C 68 % 1022,8 hPa 0,0 l/m 0 min 0 min 48 W/m 6,4 km/h (2 Bft) 93,62 %
02.11.2018 15:56 10,7 C 10,6 C 9,4 C 69 % 1022,9 hPa 0,0 l/m 0 min 0 min 47 W/m 9,7 km/h (2 Bft) 91,49 %
02.11.2018 15:58 10,7 C 10,6 C 9,4 C 69 % 1022,9 hPa 0,0 l/m 0 min 0 min 45 W/m 12,9 km/h (3 Bft) 93,62 %
02.11.2018 16:00 10,7 C 10,6 C 9,4 C 69 % 1022,9 hPa 0,0 l/m 0 min 0 min 42 W/m 9,7 km/h (2 Bft) 93,48 %
02.11.2018 16:02 10,7 C 10,0 C 9,4 C 69 % 1023,0 hPa 0,0 l/m 0 min 0 min 37 W/m 12,9 km/h (3 Bft) 92,11 %
02.11.2018 16:04 10,7 C 10,0 C 8,9 C 70 % 1023,0 hPa 0,0 l/m 0 min 0 min 33 W/m 6,4 km/h (2 Bft) 93,62 %
02.11.2018 16:08 10,7 C 10,0 C 8,9 C 70 % 1023,0 hPa 0,0 l/m 0 min 0 min 31 W/m 9,7 km/h (2 Bft) 95,79 %
02.11.2018 16:10 10,7 C 10,0 C 8,9 C 70 % 1023,0 hPa 0,0 l/m 0 min 0 min 30 W/m 6,4 km/h (2 Bft) 97,87 %
02.11.2018 16:12 10,7 C 9,4 C 8,9 C 70 % 1023,1 hPa 0,0 l/m 0 min 0 min 29 W/m 9,7 km/h (2 Bft) 95,74 %
02.11.2018 16:14 10,7 C 9,4 C 8,9 C 70 % 1023,2 hPa 0,0 l/m 0 min 0 min 30 W/m 9,7 km/h (2 Bft) 97,83 %
02.11.2018 16:16 10,6 C 9,4 C 8,3 C 70 % 1023,2 hPa 0,0 l/m 0 min 0 min 30 W/m 6,4 km/h (2 Bft) 95,74 %
02.11.2018 16:18 10,6 C 9,4 C 8,3 C 71 % 1023,2 hPa 0,0 l/m 0 min 0 min 28 W/m 6,4 km/h (2 Bft) 97,87 %
02.11.2018 16:20 10,5 C 9,4 C 8,3 C 71 % 1023,2 hPa 0,0 l/m 0 min 0 min 26 W/m 6,4 km/h (2 Bft) 94,92 %
02.11.2018 16:22 10,4 C 8,9 C 8,3 C 71 % 1023,2 hPa 0,0 l/m 0 min 0 min 26 W/m 6,4 km/h (2 Bft) 97,14 %
02.11.2018 16:24 10,4 C 8,9 C 8,3 C 71 % 1023,2 hPa 0,0 l/m 0 min 0 min 25 W/m 9,7 km/h (2 Bft) 95,74 %
02.11.2018 16:26 10,4 C 8,9 C 8,3 C 72 % 1023,2 hPa 0,0 l/m 0 min 0 min 22 W/m 9,7 km/h (2 Bft) 97,83 %
02.11.2018 16:28 10,3 C 8,9 C 8,3 C 72 % 1023,2 hPa 0,0 l/m 0 min 0 min 21 W/m 6,4 km/h (2 Bft) 97,87 %
02.11.2018 16:30 10,2 C 8,9 C 8,3 C 72 % 1023,3 hPa 0,0 l/m 0 min 0 min 21 W/m 3,2 km/h (1 Bft) 100,00 %
02.11.2018 16:32 10,2 C 8,9 C 7,8 C 72 % 1023,3 hPa 0,0 l/m 0 min 0 min 22 W/m 3,2 km/h (1 Bft) 100,00 %
02.11.2018 16:34 10,1 C 8,3 C 7,8 C 72 % 1023,3 hPa 0,0 l/m 0 min 0 min 23 W/m 3,2 km/h (1 Bft) 100,00 %
02.11.2018 16:38 10,0 C 8,3 C 7,8 C 73 % 1023,2 hPa 0,0 l/m 0 min 0 min 20 W/m 3,2 km/h (1 Bft) 100,00 %
02.11.2018 16:40 9,9 C 8,3 C 7,8 C 73 % 1023,2 hPa 0,0 l/m 0 min 0 min 18 W/m 3,2 km/h (1 Bft) 100,00 %
02.11.2018 16:42 9,9 C 8,3 C 7,8 C 74 % 1023,2 hPa 0,0 l/m 0 min 0 min 15 W/m 0,0 km/h (0 Bft) 97,87 %
02.11.2018 16:44 9,9 C 7,8 C 7,2 C 74 % 1023,2 hPa 0,0 l/m 0 min 0 min 12 W/m 0,0 km/h (0 Bft) 100,00 %
02.11.2018 16:46 9,8 C 7,8 C 7,2 C 74 % 1023,2 hPa 0,0 l/m 0 min 0 min 12 W/m 6,4 km/h (2 Bft) 100,00 %
02.11.2018 16:48 9,8 C 7,8 C 7,2 C 74 % 1023,2 hPa 0,0 l/m 0 min 0 min 12 W/m 3,2 km/h (1 Bft) 100,00 %
02.11.2018 16:50 9,7 C 7,8 C 7,2 C 74 % 1023,3 hPa 0,0 l/m 0 min 0 min 11 W/m 3,2 km/h (1 Bft) 100,00 %
02.11.2018 16:52 9,7 C 7,8 C 7,2 C 74 % 1023,3 hPa 0,0 l/m 0 min 0 min 11 W/m 3,2 km/h (1 Bft) 97,22 %
02.11.2018 16:54 9,7 C 7,8 C 7,2 C 74 % 1023,3 hPa 0,0 l/m 0 min 0 min 9 W/m 0,0 km/h (0 Bft) 97,87 %
02.11.2018 16:56 9,6 C 7,8 C 6,7 C 74 % 1023,3 hPa 0,0 l/m 0 min 0 min 8 W/m 0,0 km/h (0 Bft) 100,00 %
02.11.2018 16:58 9,6 C 7,2 C 6,7 C 74 % 1023,3 hPa 0,0 l/m 0 min 0 min 7 W/m 0,0 km/h (0 Bft) 97,87 %
02.11.2018 17:00 9,5 C 7,2 C 6,7 C 74 % 1023,3 hPa 0,0 l/m 0 min 0 min 7 W/m 0,0 km/h (0 Bft) 95,74 %
02.11.2018 17:02 9,4 C 7,2 C 6,7 C 74 % 1023,3 hPa 0,0 l/m 0 min 0 min 5 W/m 0,0 km/h (0 Bft) 97,87 %
02.11.2018 17:04 9,4 C 6,7 C 6,1 C 74 % 1023,3 hPa 0,0 l/m 0 min 0 min 5 W/m 0,0 km/h (0 Bft) 100,00 %
02.11.2018 17:08 9,3 C 7,2 C 6,1 C 75 % 1023,4 hPa 0,0 l/m 0 min 0 min 3 W/m 3,2 km/h (1 Bft) 98,92 %
02.11.2018 17:10 9,2 C 7,2 C 6,1 C 75 % 1023,4 hPa 0,0 l/m 0 min 0 min 0 W/m 3,2 km/h (1 Bft) 100,00 %
02.11.2018 17:12 9,2 C 6,7 C 6,1 C 75 % 1023,5 hPa 0,0 l/m 0 min 0 min 0 W/m 0,0 km/h (0 Bft) 97,87 %
02.11.2018 17:14 9,1 C 6,7 C 6,1 C 75 % 1023,5 hPa 0,0 l/m 0 min 0 min 0 W/m 0,0 km/h (0 Bft) 97,87 %
02.11.2018 17:16 9,1 C 6,7 C 5,6 C 75 % 1023,5 hPa 0,0 l/m 0 min 0 min 0 W/m 0,0 km/h (0 Bft) 100,00 %
02.11.2018 17:18 9,0 C 6,7 C 5,6 C 75 % 1023,5 hPa 0,0 l/m 0 min 0 min 0 W/m 0,0 km/h (0 Bft) 100,00 %
02.11.2018 17:20 8,9 C 6,1 C 5,6 C 75 % 1023,6 hPa 0,0 l/m 0 min 0 min 0 W/m 0,0 km/h (0 Bft) 100,00 %
02.11.2018 17:22 8,9 C 6,1 C 5,6 C 76 % 1023,6 hPa 0,0 l/m 0 min 0 min 0 W/m 0,0 km/h (0 Bft) 100,00 %
02.11.2018 17:24 8,8 C 6,1 C 5,6 C 76 % 1023,6 hPa 0,0 l/m 0 min 0 min 0 W/m 0,0 km/h (0 Bft) 100,00 %
02.11.2018 17:26 8,7 C 6,1 C 5,6 C 76 % 1023,6 hPa 0,0 l/m 0 min 0 min 0 W/m 0,0 km/h (0 Bft) 100,00 %
02.11.2018 17:28 8,7 C 6,1 C 5,6 C 76 % 1023,6 hPa 0,0 l/m 0 min 0 min 0 W/m 0,0 km/h (0 Bft) 100,00 %
02.11.2018 17:30 8,6 C 6,1 C 5,0 C 76 % 1023,6 hPa 0,0 l/m 0 min 0 min 0 W/m 0,0 km/h (0 Bft) 97,87 %
02.11.2018 17:32 8,5 C 6,7 C 5,0 C 77 % 1023,6 hPa 0,0 l/m 0 min 0 min 0 W/m 3,2 km/h (1 Bft) 100,00 %
02.11.2018 17:34 8,4 C 6,1 C 5,0 C 77 % 1023,6 hPa 0,0 l/m 0 min 0 min 0 W/m 0,0 km/h (0 Bft) 100,00 %
02.11.2018 17:38 8,3 C 6,1 C 5,0 C 77 % 1023,6 hPa 0,0 l/m 0 min 0 min 0 W/m 0,0 km/h (0 Bft) 100,00 %
02.11.2018 17:40 8,3 C 6,1 C 5,0 C 77 % 1023,6 hPa 0,0 l/m 0 min 0 min 0 W/m 0,0 km/h (0 Bft) 100,00 %
02.11.2018 17:42 8,2 C 5,6 C 5,0 C 78 % 1023,8 hPa 0,0 l/m 0 min 0 min 0 W/m 0,0 km/h (0 Bft) 97,87 %
02.11.2018 17:44 8,2 C 5,6 C 5,0 C 78 % 1023,8 hPa 0,0 l/m 0 min 0 min 0 W/m 0,0 km/h (0 Bft) 97,87 %
02.11.2018 17:46 8,1 C 5,6 C 5,0 C 78 % 1023,8 hPa 0,0 l/m 0 min 0 min 0 W/m 0,0 km/h (0 Bft) 97,87 %
02.11.2018 17:48 8,0 C 5,6 C 5,0 C 78 % 1023,9 hPa 0,0 l/m 0 min 0 min 0 W/m 0,0 km/h (0 Bft) 100,00 %
02.11.2018 17:50 7,9 C 5,6 C 5,0 C 79 % 1023,9 hPa 0,0 l/m 0 min 0 min 0 W/m 0,0 km/h (0 Bft) 95,74 %
02.11.2018 17:52 7,9 C 5,6 C 5,0 C 79 % 1024,0 hPa 0,0 l/m 0 min 0 min 0 W/m 0,0 km/h (0 Bft) 97,83 %
02.11.2018 17:54 7,8 C 5,6 C 5,0 C 79 % 1024,0 hPa 0,0 l/m 0 min 0 min 0 W/m 0,0 km/h (0 Bft) 97,87 %
02.11.2018 17:56 7,7 C 5,6 C 5,0 C 79 % 1024,1 hPa 0,0 l/m 0 min 0 min 0 W/m 0,0 km/h (0 Bft) 97,87 %
02.11.2018 17:58 7,7 C 5,0 C 4,4 C 79 % 1024,1 hPa 0,0 l/m 0 min 0 min 0 W/m 0,0 km/h (0 Bft) 97,87 %
02.11.2018 18:00 7,7 C 5,6 C 4,4 C 79 % 1024,1 hPa 0,0 l/m 0 min 0 min 0 W/m 0,0 km/h (0 Bft) 97,87 %
02.11.2018 18:02 7,6 C 5,0 C 4,4 C 80 % 1024,1 hPa 0,0 l/m 0 min 0 min 0 W/m 0,0 km/h (0 Bft) 97,83 %
02.11.2018 18:04 7,5 C 5,0 C 4,4 C 80 % 1024,1 hPa 0,0 l/m 0 min 0 min 0 W/m 0,0 km/h (0 Bft) 95,74 %
02.11.2018 18:08 7,4 C 5,0 C 4,4 C 80 % 1024,3 hPa 0,0 l/m 0 min 0 min 0 W/m 0,0 km/h (0 Bft) 94,68 %
02.11.2018 18:10 7,3 C 5,0 C 4,4 C 80 % 1024,3 hPa 0,0 l/m 0 min 0 min 0 W/m 0,0 km/h (0 Bft) 97,87 %
02.11.2018 18:12 7,3 C 5,0 C 4,4 C 80 % 1024,2 hPa 0,0 l/m 0 min 0 min 0 W/m 0,0 km/h (0 Bft) 93,62 %
02.11.2018 18:14 7,2 C 5,0 C 4,4 C 80 % 1024,3 hPa 0,0 l/m 0 min 0 min 0 W/m 0,0 km/h (0 Bft) 97,83 %
02.11.2018 18:16 7,2 C 4,4 C 4,4 C 81 % 1024,4 hPa 0,0 l/m 0 min 0 min 0 W/m 0,0 km/h (0 Bft) 97,87 %
02.11.2018 18:18 7,1 C 5,0 C 4,4 C 81 % 1024,4 hPa 0,0 l/m 0 min 0 min 0 W/m 0,0 km/h (0 Bft) 100,00 %
02.11.2018 18:20 7,0 C 5,0 C 4,4 C 81 % 1024,4 hPa 0,0 l/m 0 min 0 min 0 W/m 0,0 km/h (0 Bft) 100,00 %
02.11.2018 18:22 6,9 C 5,0 C 3,9 C 81 % 1024,4 hPa 0,0 l/m 0 min 0 min 0 W/m 0,0 km/h (0 Bft) 100,00 %
02.11.2018 18:24 6,9 C 4,4 C 3,9 C 81 % 1024,5 hPa 0,0 l/m 0 min 0 min 0 W/m 0,0 km/h (0 Bft) 100,00 %
02.11.2018 18:26 6,8 C 4,4 C 3,9 C 81 % 1024,6 hPa 0,0 l/m 0 min 0 min 0 W/m 0,0 km/h (0 Bft) 100,00 %
02.11.2018 18:28 6,8 C 4,4 C 3,9 C 82 % 1024,6 hPa 0,0 l/m 0 min 0 min 0 W/m 0,0 km/h (0 Bft) 100,00 %
02.11.2018 18:30 6,7 C 4,4 C 3,9 C 82 % 1024,6 hPa 0,0 l/m 0 min 0 min 0 W/m 0,0 km/h (0 Bft) 97,87 %
02.11.2018 18:32 6,7 C 4,4 C 3,9 C 82 % 1024,7 hPa 0,0 l/m 0 min 0 min 0 W/m 0,0 km/h (0 Bft) 100,00 %
02.11.2018 18:34 6,6 C 4,4 C 3,9 C 82 % 1024,6 hPa 0,0 l/m 0 min 0 min 0 W/m 0,0 km/h (0 Bft) 97,87 %
02.11.2018 18:38 6,5 C 4,4 C 3,9 C 82 % 1024,7 hPa 0,0 l/m 0 min 0 min 0 W/m 0,0 km/h (0 Bft) 98,94 %
02.11.2018 18:40 6,4 C 4,4 C 3,9 C 82 % 1024,8 hPa 0,0 l/m 0 min 0 min 0 W/m 0,0 km/h (0 Bft) 100,00 %
02.11.2018 18:42 6,4 C 4,4 C 3,9 C 82 % 1024,8 hPa 0,0 l/m 0 min 0 min 0 W/m 0,0 km/h (0 Bft) 100,00 %
02.11.2018 18:44 6,4 C 4,4 C 3,9 C 83 % 1024,8 hPa 0,0 l/m 0 min 0 min 0 W/m 0,0 km/h (0 Bft) 100,00 %
02.11.2018 18:46 6,4 C 4,4 C 3,9 C 83 % 1024,8 hPa 0,0 l/m 0 min 0 min 0 W/m 0,0 km/h (0 Bft) 97,87 %
02.11.2018 18:48 6,3 C 4,4 C 3,9 C 83 % 1024,9 hPa 0,0 l/m 0 min 0 min 0 W/m 0,0 km/h (0 Bft) 95,74 %
02.11.2018 18:50 6,2 C 4,4 C 3,9 C 83 % 1024,9 hPa 0,0 l/m 0 min 0 min 0 W/m 0,0 km/h (0 Bft) 97,87 %
02.11.2018 18:52 6,2 C 4,4 C 3,9 C 83 % 1024,9 hPa 0,0 l/m 0 min 0 min 0 W/m 0,0 km/h (0 Bft) 97,87 %
02.11.2018 18:54 6,2 C 4,4 C 3,9 C 83 % 1024,9 hPa 0,0 l/m 0 min 0 min 0 W/m 0,0 km/h (0 Bft) 97,87 %
02.11.2018 18:56 6,1 C 3,9 C 3,9 C 83 % 1024,9 hPa 0,0 l/m 0 min 0 min 0 W/m 0,0 km/h (0 Bft) 95,65 %
02.11.2018 18:58 6,1 C 3,9 C 3,3 C 83 % 1025,0 hPa 0,0 l/m 0 min 0 min 0 W/m 0,0 km/h (0 Bft) 97,87 %
02.11.2018 19:00 6,0 C 3,9 C 3,3 C 83 % 1025,0 hPa 0,0 l/m 0 min 0 min 0 W/m 0,0 km/h (0 Bft) 93,62 %
02.11.2018 19:02 6,0 C 3,9 C 3,3 C 83 % 1025,2 hPa 0,0 l/m 0 min 0 min 0 W/m 0,0 km/h (0 Bft) 97,87 %
02.11.2018 19:04 5,9 C 3,9 C 3,3 C 84 % 1025,2 hPa 0,0 l/m 0 min 0 min 0 W/m 0,0 km/h (0 Bft) 97,87 %
02.11.2018 19:08 5,8 C 3,9 C 3,3 C 84 % 1025,2 hPa 0,0 l/m 0 min 0 min 0 W/m 0,0 km/h (0 Bft) 96,77 %
02.11.2018 19:10 5,8 C 3,9 C 3,3 C 84 % 1025,3 hPa 0,0 l/m 0 min 0 min 0 W/m 0,0 km/h (0 Bft) 97,87 %
02.11.2018 19:12 5,7 C 3,9 C 3,3 C 84 % 1025,3 hPa 0,0 l/m 0 min 0 min 0 W/m 0,0 km/h (0 Bft) 97,87 %
02.11.2018 19:14 5,7 C 3,9 C 3,3 C 84 % 1025,2 hPa 0,0 l/m 0 min 0 min 0 W/m 0,0 km/h (0 Bft) 93,62 %
02.11.2018 19:16 5,7 C 3,9 C 3,3 C 84 % 1025,2 hPa 0,0 l/m 0 min 0 min 0 W/m 0,0 km/h (0 Bft) 97,87 %
02.11.2018 19:18 5,6 C 3,3 C 3,3 C 84 % 1025,3 hPa 0,0 l/m 0 min 0 min 0 W/m 0,0 km/h (0 Bft) 97,83 %
02.11.2018 19:20 5,6 C 3,3 C 3,3 C 84 % 1025,4 hPa 0,0 l/m 0 min 0 min 0 W/m 0,0 km/h (0 Bft) 95,74 %
02.11.2018 19:22 5,6 C 3,3 C 3,3 C 84 % 1025,4 hPa 0,0 l/m 0 min 0 min 0 W/m 0,0 km/h (0 Bft) 93,62 %
02.11.2018 19:24 5,5 C 3,3 C 3,3 C 84 % 1025,5 hPa 0,0 l/m 0 min 0 min 0 W/m 0,0 km/h (0 Bft) 93,62 %
02.11.2018 19:26 5,4 C 3,3 C 3,3 C 84 % 1025,5 hPa 0,0 l/m 0 min 0 min 0 W/m 0,0 km/h (0 Bft) 95,74 %
02.11.2018 19:28 5,4 C 3,3 C 2,8 C 85 % 1025,5 hPa 0,0 l/m 0 min 0 min 0 W/m 0,0 km/h (0 Bft) 95,74 %
02.11.2018 19:30 5,4 C 3,3 C 2,8 C 85 % 1025,5 hPa 0,0 l/m 0 min 0 min 0 W/m 0,0 km/h (0 Bft) 95,65 %
02.11.2018 19:32 5,3 C 3,3 C 2,8 C 85 % 1025,5 hPa 0,0 l/m 0 min 0 min 0 W/m 0,0 km/h (0 Bft) 95,74 %
02.11.2018 19:34 5,3 C 3,3 C 2,8 C 85 % 1025,5 hPa 0,0 l/m 0 min 0 min 0 W/m 0,0 km/h (0 Bft) 91,49 %
02.11.2018 19:38 5,2 C 3,3 C 2,8 C 85 % 1025,6 hPa 0,0 l/m 0 min 0 min 0 W/m 0,0 km/h (0 Bft) 93,62 %
02.11.2018 19:40 5,2 C 3,3 C 2,8 C 85 % 1025,7 hPa 0,0 l/m 0 min 0 min 0 W/m 0,0 km/h (0 Bft) 95,74 %
02.11.2018 19:42 5,1 C 3,3 C 2,8 C 85 % 1025,7 hPa 0,0 l/m 0 min 0 min 0 W/m 0,0 km/h (0 Bft) 95,65 %
02.11.2018 19:44 5,1 C 2,8 C 2,8 C 85 % 1025,8 hPa 0,0 l/m 0 min 0 min 0 W/m 0,0 km/h (0 Bft) 95,74 %
02.11.2018 19:46 5,0 C 2,8 C 2,8 C 85 % 1025,9 hPa 0,0 l/m 0 min 0 min 0 W/m 0,0 km/h (0 Bft) 91,49 %
02.11.2018 19:48 5,0 C 3,3 C 2,8 C 85 % 1025,9 hPa 0,0 l/m 0 min 0 min 0 W/m 0,0 km/h (0 Bft) 95,74 %
02.11.2018 19:50 4,9 C 3,3 C 2,8 C 85 % 1025,9 hPa 0,0 l/m 0 min 0 min 0 W/m 0,0 km/h (0 Bft) 95,74 %
02.11.2018 19:52 4,9 C 3,3 C 2,8 C 85 % 1025,9 hPa 0,0 l/m 0 min 0 min 0 W/m 0,0 km/h (0 Bft) 95,74 %
02.11.2018 19:54 4,9 C 3,3 C 2,8 C 85 % 1025,9 hPa 0,0 l/m 0 min 0 min 0 W/m 0,0 km/h (0 Bft) 95,65 %
02.11.2018 19:56 4,8 C 3,3 C 2,8 C 86 % 1026,0 hPa 0,0 l/m 0 min 0 min 0 W/m 0,0 km/h (0 Bft) 97,87 %
02.11.2018 19:58 4,8 C 3,3 C 2,8 C 85 % 1025,9 hPa 0,0 l/m 0 min 0 min 0 W/m 0,0 km/h (0 Bft) 95,74 %
02.11.2018 20:00 4,8 C 2,8 C 2,8 C 85 % 1026,0 hPa 0,0 l/m 0 min 0 min 0 W/m 0,0 km/h (0 Bft) 97,87 %
02.11.2018 20:02 4,7 C 2,8 C 2,8 C 85 % 1026,0 hPa 0,0 l/m 0 min 0 min 0 W/m 0,0 km/h (0 Bft) 95,83 %
02.11.2018 20:04 4,7 C 2,8 C 2,8 C 86 % 1026,0 hPa 0,0 l/m 0 min 0 min 0 W/m 0,0 km/h (0 Bft) 95,74 %
02.11.2018 20:08 4,6 C 2,8 C 2,8 C 86 % 1026,0 hPa 0,0 l/m 0 min 0 min 0 W/m 0,0 km/h (0 Bft) 96,77 %
02.11.2018 20:10 4,6 C 2,8 C 2,8 C 86 % 1026,1 hPa 0,0 l/m 0 min 0 min 0 W/m 0,0 km/h (0 Bft) 97,87 %
02.11.2018 20:12 4,5 C 2,8 C 2,8 C 86 % 1026,2 hPa 0,0 l/m 0 min 0 min 0 W/m 0,0 km/h (0 Bft) 97,87 %
02.11.2018 20:14 4,5 C 2,8 C 2,2 C 86 % 1026,3 hPa 0,0 l/m 0 min 0 min 0 W/m 0,0 km/h (0 Bft) 97,87 %
02.11.2018 20:16 4,5 C 2,8 C 2,2 C 86 % 1026,3 hPa 0,0 l/m 0 min 0 min 0 W/m 0,0 km/h (0 Bft) 91,30 %
02.11.2018 20:18 4,4 C 2,8 C 2,2 C 86 % 1026,3 hPa 0,0 l/m 0 min 0 min 0 W/m 0,0 km/h (0 Bft) 97,87 %
02.11.2018 20:20 4,4 C 2,8 C 2,2 C 86 % 1026,3 hPa 0,0 l/m 0 min 0 min 0 W/m 0,0 km/h (0 Bft) 95,74 %
02.11.2018 20:22 4,3 C 2,8 C 2,2 C 86 % 1026,4 hPa 0,0 l/m 0 min 0 min 0 W/m 0,0 km/h (0 Bft) 97,87 %
02.11.2018 20:24 4,3 C 2,2 C 2,2 C 86 % 1026,4 hPa 0,0 l/m 0 min 0 min 0 W/m 0,0 km/h (0 Bft) 97,87 %
02.11.2018 20:26 4,3 C 2,2 C 2,2 C 86 % 1026,4 hPa 0,0 l/m 0 min 0 min 0 W/m 0,0 km/h (0 Bft) 95,74 %
02.11.2018 20:28 4,2 C 2,2 C 2,2 C 86 % 1026,4 hPa 0,0 l/m 0 min 0 min 0 W/m 0,0 km/h (0 Bft) 97,83 %
02.11.2018 20:30 4,2 C 2,2 C 2,2 C 86 % 1026,4 hPa 0,0 l/m 0 min 0 min 0 W/m 0,0 km/h (0 Bft) 95,74 %
02.11.2018 20:32 4,2 C 2,2 C 2,2 C 86 % 1026,3 hPa 0,0 l/m 0 min 0 min 0 W/m 0,0 km/h (0 Bft) 95,74 %
02.11.2018 20:34 4,2 C 2,2 C 2,2 C 86 % 1026,4 hPa 0,0 l/m 0 min 0 min 0 W/m 0,0 km/h (0 Bft) 97,87 %
02.11.2018 20:38 4,1 C 2,2 C 2,2 C 87 % 1026,3 hPa 0,0 l/m 0 min 0 min 0 W/m 0,0 km/h (0 Bft) 96,81 %
02.11.2018 20:40 4,1 C 2,2 C 2,2 C 87 % 1026,3 hPa 0,0 l/m 0 min 0 min 0 W/m 0,0 km/h (0 Bft) 95,65 %
02.11.2018 20:42 4,0 C 2,2 C 2,2 C 87 % 1026,3 hPa 0,0 l/m 0 min 0 min 0 W/m 0,0 km/h (0 Bft) 97,87 %
02.11.2018 20:44 4,0 C 2,2 C 2,2 C 87 % 1026,4 hPa 0,0 l/m 0 min 0 min 0 W/m 0,0 km/h (0 Bft) 93,62 %
02.11.2018 20:46 3,9 C 2,2 C 2,2 C 87 % 1026,4 hPa 0,0 l/m 0 min 0 min 0 W/m 0,0 km/h (0 Bft) 93,62 %
02.11.2018 20:48 3,9 C 2,2 C 2,2 C 87 % 1026,4 hPa 0,0 l/m 0 min 0 min 0 W/m 0,0 km/h (0 Bft) 97,87 %
02.11.2018 20:50 3,9 C 2,2 C 2,2 C 87 % 1026,5 hPa 0,0 l/m 0 min 0 min 0 W/m 0,0 km/h (0 Bft) 95,74 %
02.11.2018 20:52 3,8 C 2,2 C 2,2 C 87 % 1026,5 hPa 0,0 l/m 0 min 0 min 0 W/m 0,0 km/h (0 Bft) 95,65 %
02.11.2018 20:54 3,8 C 2,2 C 2,2 C 87 % 1026,5 hPa 0,0 l/m 0 min 0 min 0 W/m 0,0 km/h (0 Bft) 95,74 %
02.11.2018 20:56 3,8 C 2,2 C 2,2 C 87 % 1026,6 hPa 0,0 l/m 0 min 0 min 0 W/m 0,0 km/h (0 Bft) 95,74 %
02.11.2018 20:58 3,7 C 2,2 C 1,7 C 87 % 1026,6 hPa 0,0 l/m 0 min 0 min 0 W/m 0,0 km/h (0 Bft) 91,49 %
02.11.2018 21:00 3,7 C 2,2 C 1,7 C 87 % 1026,7 hPa 0,0 l/m 0 min 0 min 0 W/m 0,0 km/h (0 Bft) 95,74 %
02.11.2018 21:02 3,7 C 2,8 C 1,7 C 87 % 1026,7 hPa 0,0 l/m 0 min 0 min 0 W/m 0,0 km/h (0 Bft) 93,62 %
02.11.2018 21:04 3,6 C 2,8 C 2,2 C 87 % 1026,7 hPa 0,0 l/m 0 min 0 min 0 W/m 0,0 km/h (0 Bft) 93,48 %
02.11.2018 21:08 3,6 C 2,8 C 2,2 C 87 % 1026,7 hPa 0,0 l/m 0 min 0 min 0 W/m 0,0 km/h (0 Bft) 95,74 %
02.11.2018 21:10 3,6 C 2,8 C 2,2 C 87 % 1026,7 hPa 0,0 l/m 0 min 0 min 0 W/m 0,0 km/h (0 Bft) 95,74 %
02.11.2018 21:12 3,6 C 2,8 C 2,2 C 88 % 1026,7 hPa 0,0 l/m 0 min 0 min 0 W/m 0,0 km/h (0 Bft) 91,49 %
02.11.2018 21:14 3,5 C 2,8 C 2,2 C 88 % 1026,8 hPa 0,0 l/m 0 min 0 min 0 W/m 0,0 km/h (0 Bft) 93,48 %
02.11.2018 21:16 3,5 C 2,8 C 2,2 C 88 % 1026,8 hPa 0,0 l/m 0 min 0 min 0 W/m 0,0 km/h (0 Bft) 93,62 %
02.11.2018 21:18 3,4 C 2,8 C 2,2 C 88 % 1026,8 hPa 0,0 l/m 0 min 0 min 0 W/m 0,0 km/h (0 Bft) 93,62 %
02.11.2018 21:20 3,4 C 2,2 C 2,2 C 88 % 1026,8 hPa 0,0 l/m 0 min 0 min 0 W/m 0,0 km/h (0 Bft) 93,62 %
02.11.2018 21:22 3,4 C 2,2 C 1,7 C 88 % 1026,8 hPa 0,0 l/m 0 min 0 min 0 W/m 0,0 km/h (0 Bft) 100,00 %
02.11.2018 21:24 3,4 C 2,8 C 1,7 C 88 % 1026,7 hPa 0,0 l/m 0 min 0 min 0 W/m 0,0 km/h (0 Bft) 100,00 %
02.11.2018 21:26 3,4 C 2,2 C 1,7 C 88 % 1026,8 hPa 0,0 l/m 0 min 0 min 0 W/m 0,0 km/h (0 Bft) 97,83 %
02.11.2018 21:28 3,4 C 2,2 C 1,7 C 88 % 1026,8 hPa 0,0 l/m 0 min 0 min 0 W/m 0,0 km/h (0 Bft) 100,00 %
02.11.2018 21:30 3,4 C 2,2 C 1,7 C 89 % 1026,8 hPa 0,0 l/m 0 min 0 min 0 W/m 0,0 km/h (0 Bft) 95,74 %
02.11.2018 21:32 3,3 C 2,2 C 1,7 C 89 % 1026,8 hPa 0,0 l/m 0 min 0 min 0 W/m 0,0 km/h (0 Bft) 100,00 %
02.11.2018 21:34 3,3 C 2,2 C 1,7 C 89 % 1026,8 hPa 0,0 l/m 0 min 0 min 0 W/m 0,0 km/h (0 Bft) 100,00 %
02.11.2018 21:38 3,3 C 2,2 C 1,7 C 89 % 1026,7 hPa 0,0 l/m 0 min 0 min 0 W/m 0,0 km/h (0 Bft) 100,00 %
02.11.2018 21:40 3,3 C 1,7 C 1,7 C 89 % 1026,7 hPa 0,0 l/m 0 min 0 min 0 W/m 0,0 km/h (0 Bft) 95,74 %
02.11.2018 21:42 3,3 C 1,7 C 1,7 C 89 % 1026,7 hPa 0,0 l/m 0 min 0 min 0 W/m 0,0 km/h (0 Bft) 100,00 %
02.11.2018 21:44 3,2 C 2,2 C 1,7 C 89 % 1026,8 hPa 0,0 l/m 0 min 0 min 0 W/m 0,0 km/h (0 Bft) 100,00 %
02.11.2018 21:46 3,2 C 2,2 C 1,7 C 89 % 1026,8 hPa 0,0 l/m 0 min 0 min 0 W/m 0,0 km/h (0 Bft) 100,00 %
02.11.2018 21:48 3,2 C 2,2 C 1,7 C 89 % 1026,9 hPa 0,0 l/m 0 min 0 min 0 W/m 0,0 km/h (0 Bft) 100,00 %
02.11.2018 21:50 3,2 C 2,2 C 1,7 C 89 % 1026,8 hPa 0,0 l/m 0 min 0 min 0 W/m 0,0 km/h (0 Bft) 97,83 %
02.11.2018 21:52 3,2 C 2,2 C 1,7 C 89 % 1026,8 hPa 0,0 l/m 0 min 0 min 0 W/m 0,0 km/h (0 Bft) 97,87 %
02.11.2018 21:54 3,2 C 2,2 C 1,7 C 89 % 1026,7 hPa 0,0 l/m 0 min 0 min 0 W/m 0,0 km/h (0 Bft) 100,00 %
02.11.2018 21:56 3,1 C 1,7 C 1,7 C 89 % 1026,7 hPa 0,0 l/m 0 min 0 min 0 W/m 0,0 km/h (0 Bft) 95,74 %
02.11.2018 21:58 3,1 C 2,2 C 1,7 C 89 % 1026,8 hPa 0,0 l/m 0 min 0 min 0 W/m 0,0 km/h (0 Bft) 100,00 %
02.11.2018 22:00 3,1 C 1,7 C 1,7 C 89 % 1026,8 hPa 0,0 l/m 0 min 0 min 0 W/m 0,0 km/h (0 Bft) 100,00 %
02.11.2018 22:02 3,1 C 1,7 C 1,7 C 89 % 1026,9 hPa 0,0 l/m 0 min 0 min 0 W/m 0,0 km/h (0 Bft) 100,00 %
02.11.2018 22:04 3,1 C 1,7 C 1,7 C 89 % 1026,9 hPa 0,0 l/m 0 min 0 min 0 W/m 0,0 km/h (0 Bft) 100,00 %
02.11.2018 22:08 3,0 C 1,7 C 1,7 C 90 % 1027,0 hPa 0,0 l/m 0 min 0 min 0 W/m 0,0 km/h (0 Bft) 98,94 %
02.11.2018 22:10 3,0 C 1,7 C 1,7 C 90 % 1027,0 hPa 0,0 l/m 0 min 0 min 0 W/m 0,0 km/h (0 Bft) 100,00 %
02.11.2018 22:12 3,0 C 1,7 C 1,7 C 90 % 1027,0 hPa 0,0 l/m 0 min 0 min 0 W/m 0,0 km/h (0 Bft) 100,00 %
02.11.2018 22:14 2,9 C 1,7 C 1,7 C 90 % 1027,0 hPa 0,0 l/m 0 min 0 min 0 W/m 0,0 km/h (0 Bft) 100,00 %
02.11.2018 22:16 2,9 C 1,7 C 1,7 C 90 % 1027,0 hPa 0,0 l/m 0 min 0 min 0 W/m 0,0 km/h (0 Bft) 97,87 %
02.11.2018 22:18 2,9 C 1,7 C 1,7 C 90 % 1027,0 hPa 0,0 l/m 0 min 0 min 0 W/m 0,0 km/h (0 Bft) 97,87 %
02.11.2018 22:20 2,9 C 1,7 C 1,7 C 90 % 1027,1 hPa 0,0 l/m 0 min 0 min 0 W/m 0,0 km/h (0 Bft) 100,00 %
02.11.2018 22:22 2,9 C 1,7 C 1,7 C 90 % 1027,1 hPa 0,0 l/m 0 min 0 min 0 W/m 0,0 km/h (0 Bft) 100,00 %
02.11.2018 22:24 2,9 C 1,7 C 1,7 C 90 % 1027,2 hPa 0,0 l/m 0 min 0 min 0 W/m 0,0 km/h (0 Bft) 97,83 %
02.11.2018 22:26 2,8 C 1,7 C 1,7 C 90 % 1027,2 hPa 0,0 l/m 0 min 0 min 0 W/m 0,0 km/h (0 Bft) 97,87 %
02.11.2018 22:28 2,8 C 1,7 C 1,7 C 90 % 1027,2 hPa 0,0 l/m 0 min 0 min 0 W/m 0,0 km/h (0 Bft) 97,87 %
02.11.2018 22:30 2,8 C 1,7 C 1,7 C 90 % 1027,1 hPa 0,0 l/m 0 min 0 min 0 W/m 0,0 km/h (0 Bft) 97,87 %
02.11.2018 22:32 2,8 C 2,2 C 1,7 C 90 % 1027,1 hPa 0,0 l/m 0 min 0 min 0 W/m 0,0 km/h (0 Bft) 97,87 %
02.11.2018 22:34 2,8 C 2,2 C 1,7 C 90 % 1027,1 hPa 0,0 l/m 0 min 0 min 0 W/m 0,0 km/h (0 Bft) 95,74 %
02.11.2018 22:38 2,7 C 1,7 C 1,7 C 90 % 1027,0 hPa 0,0 l/m 0 min 0 min 0 W/m 0,0 km/h (0 Bft) 95,70 %
02.11.2018 22:40 2,7 C 1,7 C 1,7 C 91 % 1027,1 hPa 0,0 l/m 0 min 0 min 0 W/m 0,0 km/h (0 Bft) 93,62 %
02.11.2018 22:42 2,7 C 1,7 C 1,7 C 91 % 1027,1 hPa 0,0 l/m 0 min 0 min 0 W/m 0,0 km/h (0 Bft) 91,49 %
02.11.2018 22:44 2,7 C 1,7 C 1,7 C 90 % 1027,0 hPa 0,0 l/m 0 min 0 min 0 W/m 0,0 km/h (0 Bft) 95,74 %
02.11.2018 22:46 2,7 C 1,7 C 1,7 C 91 % 1027,1 hPa 0,0 l/m 0 min 0 min 0 W/m 0,0 km/h (0 Bft) 95,74 %
02.11.2018 22:48 2,7 C 1,7 C 1,7 C 91 % 1027,1 hPa 0,0 l/m 0 min 0 min 0 W/m 0,0 km/h (0 Bft) 95,65 %
02.11.2018 22:50 2,7 C 1,7 C 1,7 C 91 % 1027,1 hPa 0,0 l/m 0 min 0 min 0 W/m 0,0 km/h (0 Bft) 93,62 %
02.11.2018 22:52 2,6 C 1,7 C 1,7 C 91 % 1027,1 hPa 0,0 l/m 0 min 0 min 0 W/m 0,0 km/h (0 Bft) 95,74 %
02.11.2018 22:54 2,6 C 1,7 C 1,7 C 91 % 1027,1 hPa 0,0 l/m 0 min 0 min 0 W/m 0,0 km/h (0 Bft) 95,74 %
02.11.2018 22:56 2,6 C 1,7 C 1,7 C 91 % 1027,1 hPa 0,0 l/m 0 min 0 min 0 W/m 0,0 km/h (0 Bft) 97,87 %
02.11.2018 22:58 2,6 C 1,7 C 1,7 C 91 % 1027,2 hPa 0,0 l/m 0 min 0 min 0 W/m 0,0 km/h (0 Bft) 97,87 %
02.11.2018 23:00 2,6 C 1,7 C 1,1 C 91 % 1027,1 hPa 0,0 l/m 0 min 0 min 0 W/m 0,0 km/h (0 Bft) 97,83 %
02.11.2018 23:02 2,6 C 1,7 C 1,1 C 91 % 1027,2 hPa 0,0 l/m 0 min 0 min 0 W/m 0,0 km/h (0 Bft) 97,87 %
02.11.2018 23:04 2,6 C 1,7 C 1,1 C 91 % 1027,2 hPa 0,0 l/m 0 min 0 min 0 W/m 0,0 km/h (0 Bft) 97,87 %
02.11.2018 23:08 2,6 C 1,1 C 1,1 C 91 % 1027,3 hPa 0,0 l/m 0 min 0 min 0 W/m 0,0 km/h (0 Bft) 95,79 %
02.11.2018 23:10 2,5 C 1,1 C 1,1 C 91 % 1027,3 hPa 0,0 l/m 0 min 0 min 0 W/m 0,0 km/h (0 Bft) 97,87 %
02.11.2018 23:12 2,5 C 1,1 C 1,1 C 91 % 1027,3 hPa 0,0 l/m 0 min 0 min 0 W/m 0,0 km/h (0 Bft) 97,83 %
02.11.2018 23:14 2,5 C 1,1 C 1,1 C 91 % 1027,4 hPa 0,0 l/m 0 min 0 min 0 W/m 0,0 km/h (0 Bft) 100,00 %
02.11.2018 23:16 2,5 C 1,1 C 1,1 C 91 % 1027,4 hPa 0,0 l/m 0 min 0 min 0 W/m 0,0 km/h (0 Bft) 97,87 %
02.11.2018 23:18 2,5 C 1,1 C 1,1 C 91 % 1027,4 hPa 0,0 l/m 0 min 0 min 0 W/m 0,0 km/h (0 Bft) 97,87 %
02.11.2018 23:20 2,4 C 1,1 C 1,1 C 91 % 1027,4 hPa 0,0 l/m 0 min 0 min 0 W/m 0,0 km/h (0 Bft) 97,87 %
02.11.2018 23:22 2,4 C 1,1 C 1,1 C 91 % 1027,4 hPa 0,0 l/m 0 min 0 min 0 W/m 0,0 km/h (0 Bft) 95,65 %
02.11.2018 23:24 2,4 C 1,1 C 1,1 C 91 % 1027,4 hPa 0,0 l/m 0 min 0 min 0 W/m 0,0 km/h (0 Bft) 97,87 %
02.11.2018 23:26 2,4 C 1,1 C 1,1 C 91 % 1027,4 hPa 0,0 l/m 0 min 0 min 0 W/m 0,0 km/h (0 Bft) 95,74 %
02.11.2018 23:28 2,4 C 1,1 C 1,1 C 91 % 1027,4 hPa 0,0 l/m 0 min 0 min 0 W/m 0,0 km/h (0 Bft) 97,87 %
02.11.2018 23:30 2,4 C 1,1 C 1,1 C 91 % 1027,4 hPa 0,0 l/m 0 min 0 min 0 W/m 0,0 km/h (0 Bft) 97,87 %
02.11.2018 23:32 2,3 C 1,1 C 1,1 C 91 % 1027,4 hPa 0,0 l/m 0 min 0 min 0 W/m 0,0 km/h (0 Bft) 97,87 %
02.11.2018 23:34 2,3 C 1,1 C 1,1 C 92 % 1027,4 hPa 0,0 l/m 0 min 0 min 0 W/m 0,0 km/h (0 Bft) 97,83 %
02.11.2018 23:38 2,3 C 1,1 C 1,1 C 91 % 1027,5 hPa 0,0 l/m 0 min 0 min 0 W/m 0,0 km/h (0 Bft) 100,00 %
02.11.2018 23:40 2,3 C 1,1 C 1,1 C 91 % 1027,4 hPa 0,0 l/m 0 min 0 min 0 W/m 0,0 km/h (0 Bft) 100,00 %
02.11.2018 23:42 2,2 C 1,1 C 1,1 C 91 % 1027,5 hPa 0,0 l/m 0 min 0 min 0 W/m 0,0 km/h (0 Bft) 100,00 %
02.11.2018 23:44 2,2 C 1,1 C 1,1 C 91 % 1027,5 hPa 0,0 l/m 0 min 0 min 0 W/m 0,0 km/h (0 Bft) 97,87 %
02.11.2018 23:46 2,2 C 1,1 C 1,1 C 91 % 1027,5 hPa 0,0 l/m 0 min 0 min 0 W/m 0,0 km/h (0 Bft) 100,00 %
02.11.2018 23:48 2,2 C 1,1 C 1,1 C 91 % 1027,5 hPa 0,0 l/m 0 min 0 min 0 W/m 0,0 km/h (0 Bft) 100,00 %
02.11.2018 23:50 2,2 C 1,1 C 1,1 C 91 % 1027,6 hPa 0,0 l/m 0 min 0 min 0 W/m 0,0 km/h (0 Bft) 100,00 %
02.11.2018 23:52 2,2 C 1,1 C 1,1 C 91 % 1027,6 hPa 0,0 l/m 0 min 0 min 0 W/m 0,0 km/h (0 Bft) 97,87 %
02.11.2018 23:54 2,1 C 1,1 C 0,6 C 92 % 1027,6 hPa 0,0 l/m 0 min 0 min 0 W/m 0,0 km/h (0 Bft) 97,87 %
02.11.2018 23:56 2,1 C 1,1 C 0,6 C 92 % 1027,6 hPa 0,0 l/m 0 min 0 min 0 W/m 0,0 km/h (0 Bft) 100,00 %
02.11.2018 23:58 2,1 C 0,6 C 0,6 C 92 % 1027,6 hPa 0,0 l/m 0 min 0 min 0 W/m 0,0 km/h (0 Bft) 100,00 %
_ Min-Zeit 23:54 23:58 23:54 14:16 00:00 - - - - 10:42 06:56
Minimum _ 2,1 C 0,6 C 0,6 C 63 % 1009,6 hPa - - - - 0,0 km/h (0 Bft) 91,30 %
_ Max-Zeit 12:28 12:26 12:18 00:00 23:50 10:38 10:38 05:14 11:58 03:30 00:00
Maximum _ 13,2 C 22,2 C 17,8 C 98 % 1027,6 hPa 0,4 l/m 4 min 2 min 557 W/m 22,5 km/h
S-SW (4 Bft)
100,00 %
Durchschnitt _ 8,5 C 8,8 C 7,0 C 85 % 1019,5 hPa #0,8 l/m #4:22 h #16 min. 200 W/m 6,8 km/h (2 Bft) 97,47 %
© 2018 W. Hausmann